Wetterdaten: Donnerstag, 09.06.2016
Datum Zeit Temp. Aussen Temp. o. S. +5cm Feuchte Auss BlattFeu 1 Luftdruck Regen Sonnenschein Regendauer Solar Windben Empfang
09.06.2016 00:00 14,6 C 13,3 C 12,2 C 87 % 0 lf 1020,0 hPa 0,0 l/m 0 min 0 min 0 W/m 8,4 km/h (2 Bft) 93,48 %
09.06.2016 00:02 14,6 C 13,3 C 12,2 C 87 % 0 lf 1020,0 hPa 0,0 l/m 0 min 0 min 0 W/m 4,2 km/h (1 Bft) 14,29 %
09.06.2016 00:06 14,6 C 13,3 C 12,2 C 88 % 0 lf 1019,9 hPa 0,0 l/m 0 min 0 min 0 W/m 8,4 km/h (2 Bft) 84,91 %
09.06.2016 00:08 14,5 C 13,3 C 12,2 C 88 % 0 lf 1020,0 hPa 0,0 l/m 0 min 0 min 0 W/m 10,5 km/h (2 Bft) 100,00 %
09.06.2016 00:10 14,5 C 13,3 C 12,2 C 88 % 0 lf 1020,0 hPa 0,0 l/m 0 min 0 min 0 W/m 4,2 km/h (1 Bft) 97,87 %
09.06.2016 00:12 14,4 C 13,3 C 12,2 C 88 % 0 lf 1020,0 hPa 0,0 l/m 0 min 0 min 0 W/m 10,5 km/h (2 Bft) 97,87 %
09.06.2016 00:14 14,4 C 13,3 C 12,2 C 88 % 0 lf 1020,0 hPa 0,0 l/m 0 min 0 min 0 W/m 6,3 km/h (2 Bft) 95,65 %
09.06.2016 00:16 14,4 C 13,3 C 12,2 C 88 % 0 lf 1020,0 hPa 0,0 l/m 0 min 0 min 0 W/m 8,4 km/h (2 Bft) 95,74 %
09.06.2016 00:18 14,4 C 12,8 C 12,2 C 88 % 0 lf 1020,0 hPa 0,0 l/m 0 min 0 min 0 W/m 6,3 km/h (2 Bft) 95,74 %
09.06.2016 00:20 14,3 C 12,8 C 12,2 C 88 % 0 lf 1020,1 hPa 0,0 l/m 0 min 0 min 0 W/m 8,4 km/h (2 Bft) 93,62 %
09.06.2016 00:22 14,3 C 12,8 C 12,2 C 88 % 0 lf 1020,1 hPa 0,0 l/m 0 min 0 min 0 W/m 6,3 km/h (2 Bft) 93,62 %
09.06.2016 00:24 14,3 C 12,8 C 12,2 C 88 % 0 lf 1020,1 hPa 0,0 l/m 0 min 0 min 0 W/m 4,2 km/h (1 Bft) 93,48 %
09.06.2016 00:26 14,2 C 12,8 C 12,2 C 88 % 0 lf 1020,0 hPa 0,0 l/m 0 min 0 min 0 W/m 6,3 km/h (2 Bft) 95,74 %
09.06.2016 00:28 14,2 C 12,8 C 12,2 C 88 % 0 lf 1020,0 hPa 0,0 l/m 0 min 0 min 0 W/m 4,2 km/h (1 Bft) 93,62 %
09.06.2016 00:30 14,2 C 12,8 C 11,7 C 88 % 0 lf 1020,0 hPa 0,0 l/m 0 min 0 min 0 W/m 0,0 km/h (0 Bft) 95,74 %
09.06.2016 00:32 14,2 C 12,8 C 11,7 C 88 % 0 lf 1020,0 hPa 0,0 l/m 0 min 0 min 0 W/m 0,0 km/h (0 Bft) 95,74 %
09.06.2016 00:34 14,2 C 12,8 C 11,7 C 88 % 0 lf 1020,0 hPa 0,0 l/m 0 min 0 min 0 W/m 0,0 km/h (0 Bft) 93,62 %
09.06.2016 00:36 14,2 C 12,8 C 11,7 C 88 % 0 lf 1020,0 hPa 0,0 l/m 0 min 0 min 0 W/m 2,1 km/h (1 Bft) 95,65 %
09.06.2016 00:38 14,2 C 12,8 C 11,7 C 88 % 0 lf 1020,0 hPa 0,0 l/m 0 min 0 min 0 W/m 0,0 km/h (0 Bft) 95,74 %
09.06.2016 00:40 14,2 C 12,8 C 11,7 C 88 % 0 lf 1020,0 hPa 0,0 l/m 0 min 0 min 0 W/m 0,0 km/h (0 Bft) 95,74 %
09.06.2016 00:42 14,2 C 12,8 C 11,7 C 88 % 0 lf 1019,9 hPa 0,0 l/m 0 min 0 min 0 W/m 4,2 km/h (1 Bft) 95,74 %
09.06.2016 00:44 14,2 C 12,8 C 11,7 C 88 % 0 lf 1019,9 hPa 0,0 l/m 0 min 0 min 0 W/m 6,3 km/h (2 Bft) 93,62 %
09.06.2016 00:46 14,1 C 12,8 C 11,7 C 88 % 0 lf 1019,9 hPa 0,0 l/m 0 min 0 min 0 W/m 4,2 km/h (1 Bft) 94,23 %
09.06.2016 00:48 14,1 C 12,8 C 11,7 C 88 % 0 lf 1019,9 hPa 0,0 l/m 0 min 0 min 0 W/m 4,2 km/h (1 Bft) 97,87 %
09.06.2016 00:50 14,1 C 12,2 C 11,7 C 88 % 0 lf 1019,8 hPa 0,0 l/m 0 min 0 min 0 W/m 8,4 km/h (2 Bft) 97,87 %
09.06.2016 00:52 14,0 C 12,2 C 11,7 C 89 % 0 lf 1019,8 hPa 0,0 l/m 0 min 0 min 0 W/m 6,3 km/h (2 Bft) 93,62 %
09.06.2016 00:54 13,9 C 12,2 C 11,7 C 88 % 0 lf 1019,9 hPa 0,0 l/m 0 min 0 min 0 W/m 10,5 km/h (2 Bft) 100,00 %
09.06.2016 00:56 13,9 C 12,8 C 11,7 C 89 % 0 lf 1019,9 hPa 0,0 l/m 0 min 0 min 0 W/m 8,4 km/h (2 Bft) 93,62 %
09.06.2016 00:58 13,9 C 12,8 C 12,2 C 89 % 0 lf 1019,9 hPa 0,0 l/m 0 min 0 min 0 W/m 6,3 km/h (2 Bft) 97,83 %
09.06.2016 01:00 13,9 C 12,8 C 12,2 C 89 % 0 lf 1019,9 hPa 0,0 l/m 0 min 0 min 0 W/m 10,5 km/h (2 Bft) 95,74 %
09.06.2016 01:02 13,9 C 12,8 C 12,2 C 89 % 0 lf 1019,9 hPa 0,0 l/m 0 min 0 min 0 W/m 10,5 km/h (2 Bft) 93,62 %
09.06.2016 01:04 13,9 C 12,8 C 12,2 C 89 % 0 lf 1020,0 hPa 0,0 l/m 0 min 0 min 3 W/m 4,2 km/h (1 Bft) 95,12 %
09.06.2016 01:06 13,8 C 12,2 C 11,7 C 89 % 0 lf 1020,0 hPa 0,0 l/m 0 min 0 min 1 W/m 6,3 km/h (2 Bft) 94,34 %
09.06.2016 01:08 13,8 C 12,8 C 12,2 C 90 % 0 lf 1020,0 hPa 0,0 l/m 0 min 0 min 0 W/m 8,4 km/h (2 Bft) 95,74 %
09.06.2016 01:10 13,8 C 12,8 C 12,2 C 90 % 0 lf 1020,0 hPa 0,0 l/m 0 min 0 min 5 W/m 6,3 km/h (2 Bft) 95,12 %
09.06.2016 01:12 13,8 C 12,8 C 12,2 C 90 % 0 lf 1020,0 hPa 0,0 l/m 0 min 0 min 3 W/m 8,4 km/h (2 Bft) 91,30 %
09.06.2016 01:14 13,8 C 12,8 C 12,2 C 90 % 0 lf 1019,9 hPa 0,0 l/m 0 min 0 min 1 W/m 8,4 km/h (2 Bft) 91,49 %
09.06.2016 01:16 13,7 C 12,8 C 12,2 C 90 % 0 lf 1019,9 hPa 0,0 l/m 0 min 0 min 5 W/m 8,4 km/h (2 Bft) 90,57 %
09.06.2016 01:18 13,7 C 12,8 C 12,2 C 90 % 0 lf 1020,0 hPa 0,0 l/m 0 min 0 min 5 W/m 8,4 km/h (2 Bft) 93,62 %
09.06.2016 01:20 13,7 C 12,8 C 11,7 C 90 % 0 lf 1020,0 hPa 0,0 l/m 0 min 0 min 0 W/m 10,5 km/h (2 Bft) 95,74 %
09.06.2016 01:22 13,7 C 12,8 C 12,2 C 90 % 0 lf 1020,0 hPa 0,0 l/m 0 min 0 min 0 W/m 8,4 km/h (2 Bft) 95,65 %
09.06.2016 01:24 13,7 C 12,8 C 12,2 C 90 % 0 lf 1020,0 hPa 0,0 l/m 0 min 0 min 0 W/m 6,3 km/h (2 Bft) 95,74 %
09.06.2016 01:26 13,7 C 12,8 C 11,7 C 91 % 0 lf 1020,1 hPa 0,0 l/m 0 min 0 min 2 W/m 6,3 km/h (2 Bft) 91,49 %
09.06.2016 01:28 13,6 C 12,8 C 11,7 C 91 % 0 lf 1020,0 hPa 0,0 l/m 0 min 0 min 5 W/m 10,5 km/h (2 Bft) 97,87 %
09.06.2016 01:30 13,6 C 12,8 C 11,7 C 91 % 0 lf 1020,0 hPa 0,0 l/m 0 min 0 min 0 W/m 6,3 km/h (2 Bft) 95,74 %
09.06.2016 01:32 13,6 C 12,8 C 11,7 C 91 % 0 lf 1020,0 hPa 0,0 l/m 0 min 0 min 0 W/m 8,4 km/h (2 Bft) 95,65 %
09.06.2016 01:34 13,6 C 12,8 C 11,7 C 91 % 0 lf 1020,0 hPa 0,0 l/m 0 min 0 min 5 W/m 6,3 km/h (2 Bft) 91,49 %
09.06.2016 01:36 13,6 C 12,8 C 11,7 C 91 % 0 lf 1020,0 hPa 0,0 l/m 0 min 0 min 1 W/m 6,3 km/h (2 Bft) 93,62 %
09.06.2016 01:38 13,6 C 12,8 C 11,7 C 91 % 0 lf 1020,0 hPa 0,0 l/m 0 min 0 min 0 W/m 8,4 km/h (2 Bft) 93,62 %
09.06.2016 01:40 13,6 C 12,8 C 11,7 C 91 % 0 lf 1020,1 hPa 0,0 l/m 0 min 0 min 0 W/m 4,2 km/h (1 Bft) 95,74 %
09.06.2016 01:42 13,5 C 12,8 C 11,7 C 91 % 0 lf 1020,1 hPa 0,0 l/m 0 min 0 min 0 W/m 8,4 km/h (2 Bft) 97,87 %
09.06.2016 01:44 13,5 C 12,8 C 11,7 C 91 % 0 lf 1020,0 hPa 0,0 l/m 0 min 0 min 0 W/m 8,4 km/h (2 Bft) 93,48 %
09.06.2016 01:46 13,5 C 12,8 C 11,7 C 91 % 0 lf 1019,9 hPa 0,0 l/m 0 min 0 min 0 W/m 8,4 km/h (2 Bft) 92,68 %
09.06.2016 01:48 13,5 C 12,8 C 11,7 C 91 % 0 lf 1020,0 hPa 0,0 l/m 0 min 0 min 0 W/m 10,5 km/h (2 Bft) 97,87 %
09.06.2016 01:50 13,5 C 12,8 C 12,2 C 91 % 0 lf 1019,9 hPa 0,0 l/m 0 min 0 min 0 W/m 12,6 km/h (3 Bft) 97,87 %
09.06.2016 01:52 13,4 C 12,8 C 12,2 C 91 % 0 lf 1019,9 hPa 0,0 l/m 0 min 0 min 0 W/m 10,5 km/h (2 Bft) 94,34 %
09.06.2016 01:54 13,4 C 12,8 C 12,2 C 91 % 0 lf 1019,9 hPa 0,0 l/m 0 min 0 min 0 W/m 10,5 km/h (2 Bft) 95,74 %
09.06.2016 01:56 13,4 C 12,8 C 12,2 C 91 % 0 lf 1019,9 hPa 0,0 l/m 0 min 0 min 0 W/m 12,6 km/h (3 Bft) 97,83 %
09.06.2016 01:58 13,4 C 12,8 C 12,2 C 91 % 0 lf 1019,8 hPa 0,0 l/m 0 min 0 min 0 W/m 10,5 km/h (2 Bft) 97,87 %
09.06.2016 02:00 13,4 C 12,8 C 12,2 C 91 % 0 lf 1019,8 hPa 0,0 l/m 0 min 0 min 0 W/m 6,3 km/h (2 Bft) 95,74 %
09.06.2016 02:02 13,4 C 12,8 C 11,7 C 92 % 0 lf 1019,9 hPa 0,0 l/m 0 min 0 min 0 W/m 10,5 km/h (2 Bft) 97,87 %
09.06.2016 02:04 13,4 C 12,8 C 11,7 C 92 % 0 lf 1019,8 hPa 0,0 l/m 0 min 0 min 0 W/m 10,5 km/h (2 Bft) 97,87 %
09.06.2016 02:06 13,4 C 12,8 C 11,7 C 92 % 0 lf 1019,8 hPa 0,0 l/m 0 min 0 min 0 W/m 8,4 km/h (2 Bft) 100,00 %
09.06.2016 02:08 13,3 C 12,8 C 11,7 C 92 % 0 lf 1019,8 hPa 0,0 l/m 0 min 0 min 0 W/m 8,4 km/h (2 Bft) 97,83 %
09.06.2016 02:10 13,3 C 12,8 C 11,7 C 92 % 0 lf 1019,8 hPa 0,0 l/m 0 min 0 min 0 W/m 8,4 km/h (2 Bft) 95,74 %
09.06.2016 02:12 13,3 C 12,8 C 11,7 C 92 % 0 lf 1019,8 hPa 0,0 l/m 0 min 0 min 0 W/m 10,5 km/h (2 Bft) 95,74 %
09.06.2016 02:14 13,3 C 12,8 C 11,7 C 92 % 0 lf 1019,8 hPa 0,0 l/m 0 min 0 min 0 W/m 8,4 km/h (2 Bft) 97,87 %
09.06.2016 02:16 13,3 C 12,8 C 11,7 C 92 % 0 lf 1019,8 hPa 0,0 l/m 0 min 0 min 0 W/m 6,3 km/h (2 Bft) 97,87 %
09.06.2016 02:18 13,3 C 12,8 C 11,7 C 92 % 0 lf 1019,8 hPa 0,0 l/m 0 min 0 min 0 W/m 10,5 km/h (2 Bft) 100,00 %
09.06.2016 02:20 13,3 C 12,8 C 11,7 C 92 % 0 lf 1019,7 hPa 0,0 l/m 0 min 0 min 0 W/m 10,5 km/h (2 Bft) 98,11 %
09.06.2016 02:22 13,3 C 12,8 C 11,7 C 92 % 0 lf 1019,7 hPa 0,0 l/m 0 min 0 min 0 W/m 12,6 km/h (3 Bft) 97,83 %
09.06.2016 02:24 13,3 C 12,8 C 11,7 C 92 % 0 lf 1019,8 hPa 0,0 l/m 0 min 0 min 0 W/m 10,5 km/h (2 Bft) 95,74 %
09.06.2016 02:26 13,3 C 12,8 C 11,7 C 92 % 0 lf 1019,8 hPa 0,0 l/m 0 min 0 min 0 W/m 8,4 km/h (2 Bft) 97,87 %
09.06.2016 02:28 13,2 C 12,8 C 11,7 C 92 % 0 lf 1019,8 hPa 0,0 l/m 0 min 0 min 0 W/m 10,5 km/h (2 Bft) 95,74 %
09.06.2016 02:30 13,2 C 12,8 C 11,7 C 92 % 0 lf 1019,9 hPa 0,0 l/m 0 min 0 min 0 W/m 8,4 km/h (2 Bft) 97,87 %
09.06.2016 02:32 13,2 C 12,8 C 11,7 C 92 % 0 lf 1019,9 hPa 0,0 l/m 0 min 0 min 0 W/m 6,3 km/h (2 Bft) 97,83 %
09.06.2016 02:34 13,2 C 12,2 C 11,7 C 92 % 0 lf 1019,9 hPa 0,0 l/m 0 min 0 min 0 W/m 6,3 km/h (2 Bft) 89,36 %
09.06.2016 02:36 13,2 C 12,2 C 11,7 C 92 % 0 lf 1019,9 hPa 0,0 l/m 0 min 0 min 0 W/m 8,4 km/h (2 Bft) 98,15 %
09.06.2016 02:38 13,2 C 12,2 C 11,7 C 92 % 0 lf 1019,9 hPa 0,0 l/m 0 min 0 min 0 W/m 6,3 km/h (2 Bft) 95,74 %
09.06.2016 02:40 13,2 C 12,2 C 11,7 C 92 % 0 lf 1019,9 hPa 0,0 l/m 0 min 0 min 0 W/m 6,3 km/h (2 Bft) 95,74 %
09.06.2016 02:42 13,2 C 12,2 C 11,7 C 92 % 0 lf 1019,8 hPa 0,0 l/m 0 min 0 min 0 W/m 6,3 km/h (2 Bft) 100,00 %
09.06.2016 02:44 13,2 C 12,2 C 11,7 C 92 % 0 lf 1019,9 hPa 0,0 l/m 0 min 0 min 0 W/m 8,4 km/h (2 Bft) 100,00 %
09.06.2016 02:46 13,2 C 12,2 C 11,7 C 92 % 0 lf 1019,9 hPa 0,0 l/m 0 min 0 min 0 W/m 6,3 km/h (2 Bft) 97,87 %
09.06.2016 02:48 13,2 C 12,2 C 11,7 C 92 % 0 lf 1019,9 hPa 0,0 l/m 0 min 0 min 0 W/m 8,4 km/h (2 Bft) 100,00 %
09.06.2016 02:50 13,1 C 12,2 C 11,7 C 92 % 0 lf 1019,9 hPa 0,0 l/m 0 min 0 min 0 W/m 8,4 km/h (2 Bft) 97,87 %
09.06.2016 02:52 13,1 C 12,2 C 11,7 C 92 % 0 lf 1019,9 hPa 0,0 l/m 0 min 0 min 4 W/m 8,4 km/h (2 Bft) 97,87 %
09.06.2016 02:54 13,1 C 12,2 C 11,7 C 92 % 0 lf 1019,9 hPa 0,0 l/m 0 min 0 min 2 W/m 6,3 km/h (2 Bft) 95,65 %
09.06.2016 02:56 13,1 C 12,2 C 11,7 C 92 % 0 lf 1019,9 hPa 0,0 l/m 0 min 0 min 0 W/m 4,2 km/h (1 Bft) 97,87 %
09.06.2016 02:58 13,1 C 12,2 C 11,7 C 92 % 0 lf 1019,9 hPa 0,0 l/m 0 min 0 min 0 W/m 4,2 km/h (1 Bft) 100,00 %
09.06.2016 03:00 13,1 C 12,2 C 11,7 C 92 % 0 lf 1019,9 hPa 0,0 l/m 0 min 0 min 1 W/m 4,2 km/h (1 Bft) 97,87 %
09.06.2016 03:02 13,1 C 12,2 C 11,7 C 92 % 0 lf 1019,9 hPa 0,0 l/m 0 min 0 min 4 W/m 6,3 km/h (2 Bft) 100,00 %
09.06.2016 03:04 13,1 C 12,2 C 11,7 C 92 % 0 lf 1019,9 hPa 0,0 l/m 0 min 0 min 0 W/m 6,3 km/h (2 Bft) 100,00 %
09.06.2016 03:06 13,1 C 12,2 C 11,7 C 92 % 0 lf 1019,8 hPa 0,0 l/m 0 min 0 min 0 W/m 4,2 km/h (1 Bft) 100,00 %
09.06.2016 03:08 13,1 C 12,2 C 11,7 C 92 % 0 lf 1019,9 hPa 0,0 l/m 0 min 0 min 0 W/m 6,3 km/h (2 Bft) 93,62 %
09.06.2016 03:10 13,1 C 12,2 C 11,7 C 92 % 0 lf 1019,9 hPa 0,0 l/m 0 min 0 min 0 W/m 6,3 km/h (2 Bft) 100,00 %
09.06.2016 03:12 13,1 C 12,2 C 11,7 C 92 % 0 lf 1019,9 hPa 0,0 l/m 0 min 0 min 0 W/m 6,3 km/h (2 Bft) 97,87 %
09.06.2016 03:14 13,1 C 12,2 C 11,7 C 92 % 0 lf 1020,0 hPa 0,0 l/m 0 min 0 min 0 W/m 6,3 km/h (2 Bft) 97,87 %
09.06.2016 03:16 13,1 C 12,2 C 11,7 C 92 % 0 lf 1020,0 hPa 0,0 l/m 0 min 0 min 0 W/m 8,4 km/h (2 Bft) 100,00 %
09.06.2016 03:18 13,1 C 12,2 C 11,7 C 92 % 0 lf 1019,9 hPa 0,0 l/m 0 min 0 min 0 W/m 6,3 km/h (2 Bft) 100,00 %
09.06.2016 03:20 13,1 C 12,2 C 11,7 C 92 % 0 lf 1019,9 hPa 0,0 l/m 0 min 0 min 0 W/m 6,3 km/h (2 Bft) 100,00 %
09.06.2016 03:22 13,1 C 12,2 C 11,7 C 93 % 0 lf 1019,9 hPa 0,0 l/m 0 min 0 min 0 W/m 8,4 km/h (2 Bft) 97,87 %
09.06.2016 03:24 13,1 C 12,2 C 11,7 C 93 % 0 lf 1019,9 hPa 0,0 l/m 0 min 0 min 0 W/m 10,5 km/h (2 Bft) 97,87 %
09.06.2016 03:26 13,0 C 12,2 C 11,7 C 93 % 0 lf 1020,0 hPa 0,0 l/m 0 min 0 min 0 W/m 6,3 km/h (2 Bft) 97,87 %
09.06.2016 03:28 13,0 C 12,2 C 11,7 C 93 % 0 lf 1019,9 hPa 0,0 l/m 0 min 0 min 0 W/m 8,4 km/h (2 Bft) 100,00 %
09.06.2016 03:30 13,0 C 12,2 C 11,7 C 93 % 0 lf 1020,0 hPa 0,0 l/m 0 min 0 min 0 W/m 4,2 km/h (1 Bft) 95,65 %
09.06.2016 03:32 13,0 C 12,2 C 11,7 C 93 % 0 lf 1020,0 hPa 0,0 l/m 0 min 0 min 0 W/m 6,3 km/h (2 Bft) 95,74 %
09.06.2016 03:34 13,0 C 12,2 C 11,7 C 93 % 0 lf 1019,9 hPa 0,0 l/m 0 min 0 min 0 W/m 10,5 km/h (2 Bft) 97,87 %
09.06.2016 03:36 13,0 C 12,2 C 11,7 C 93 % 0 lf 1020,0 hPa 0,0 l/m 0 min 0 min 0 W/m 4,2 km/h (1 Bft) 95,74 %
09.06.2016 03:38 13,0 C 12,2 C 11,7 C 93 % 0 lf 1019,9 hPa 0,0 l/m 0 min 0 min 0 W/m 6,3 km/h (2 Bft) 97,87 %
09.06.2016 03:40 13,0 C 12,2 C 11,7 C 93 % 0 lf 1020,0 hPa 0,0 l/m 0 min 0 min 0 W/m 10,5 km/h (2 Bft) 97,87 %
09.06.2016 03:42 12,9 C 12,2 C 11,7 C 93 % 0 lf 1019,9 hPa 0,0 l/m 0 min 0 min 0 W/m 14,6 km/h (3 Bft) 93,48 %
09.06.2016 03:44 12,9 C 12,2 C 11,7 C 93 % 0 lf 1019,9 hPa 0,0 l/m 0 min 0 min 0 W/m 8,4 km/h (2 Bft) 95,74 %
09.06.2016 03:46 12,9 C 12,2 C 11,7 C 93 % 0 lf 1020,0 hPa 0,0 l/m 0 min 0 min 0 W/m 12,6 km/h (3 Bft) 95,74 %
09.06.2016 03:48 12,9 C 12,2 C 11,7 C 93 % 0 lf 1020,0 hPa 0,0 l/m 0 min 0 min 0 W/m 10,5 km/h (2 Bft) 95,74 %
09.06.2016 03:50 12,9 C 12,2 C 11,7 C 93 % 0 lf 1020,0 hPa 0,0 l/m 0 min 0 min 0 W/m 10,5 km/h (2 Bft) 97,87 %
09.06.2016 03:52 12,9 C 12,2 C 11,7 C 93 % 0 lf 1020,0 hPa 0,0 l/m 0 min 0 min 0 W/m 12,6 km/h (3 Bft) 95,65 %
09.06.2016 03:54 12,8 C 12,2 C 11,7 C 93 % 0 lf 1020,0 hPa 0,0 l/m 0 min 0 min 0 W/m 12,6 km/h (3 Bft) 95,74 %
09.06.2016 03:56 12,8 C 12,2 C 11,7 C 93 % 0 lf 1020,0 hPa 0,0 l/m 0 min 0 min 0 W/m 8,4 km/h (2 Bft) 95,74 %
09.06.2016 03:58 12,8 C 12,2 C 11,7 C 93 % 0 lf 1020,0 hPa 0,0 l/m 0 min 0 min 0 W/m 8,4 km/h (2 Bft) 93,62 %
09.06.2016 04:00 12,8 C 12,2 C 11,7 C 93 % 0 lf 1020,0 hPa 0,0 l/m 0 min 0 min 0 W/m 8,4 km/h (2 Bft) 95,74 %
09.06.2016 04:02 12,8 C 12,2 C 11,7 C 93 % 0 lf 1020,0 hPa 0,0 l/m 0 min 0 min 0 W/m 8,4 km/h (2 Bft) 100,00 %
09.06.2016 04:04 12,8 C 12,2 C 11,7 C 93 % 0 lf 1020,0 hPa 0,0 l/m 0 min 0 min 0 W/m 12,6 km/h (3 Bft) 95,65 %
09.06.2016 04:06 12,7 C 12,2 C 11,7 C 93 % 0 lf 1019,9 hPa 0,0 l/m 0 min 0 min 0 W/m 12,6 km/h (3 Bft) 95,74 %
09.06.2016 04:08 12,7 C 12,2 C 11,7 C 93 % 0 lf 1019,9 hPa 0,0 l/m 0 min 0 min 0 W/m 8,4 km/h (2 Bft) 95,74 %
09.06.2016 04:10 12,7 C 12,2 C 11,7 C 93 % 0 lf 1019,9 hPa 0,0 l/m 0 min 0 min 0 W/m 8,4 km/h (2 Bft) 87,23 %
09.06.2016 04:12 12,7 C 12,2 C 11,7 C 93 % 0 lf 1019,9 hPa 0,0 l/m 0 min 0 min 0 W/m 10,5 km/h (2 Bft) 93,62 %
09.06.2016 04:14 12,7 C 12,2 C 11,7 C 93 % 0 lf 1019,9 hPa 0,0 l/m 0 min 0 min 0 W/m 6,3 km/h (2 Bft) 93,62 %
09.06.2016 04:16 12,7 C 12,2 C 11,7 C 93 % 0 lf 1019,9 hPa 0,0 l/m 0 min 0 min 0 W/m 6,3 km/h (2 Bft) 93,48 %
09.06.2016 04:18 12,7 C 12,2 C 11,7 C 93 % 0 lf 1019,9 hPa 0,0 l/m 0 min 0 min 0 W/m 12,6 km/h (3 Bft) 95,74 %
09.06.2016 04:20 12,7 C 12,2 C 11,7 C 93 % 0 lf 1019,9 hPa 0,0 l/m 0 min 0 min 0 W/m 10,5 km/h (2 Bft) 93,62 %
09.06.2016 04:22 12,7 C 12,8 C 11,7 C 93 % 0 lf 1019,9 hPa 0,0 l/m 0 min 0 min 0 W/m 12,6 km/h (3 Bft) 93,62 %
09.06.2016 04:24 12,7 C 12,8 C 11,7 C 93 % 0 lf 1019,9 hPa 0,0 l/m 0 min 0 min 0 W/m 10,5 km/h (2 Bft) 93,62 %
09.06.2016 04:26 12,7 C 12,8 C 11,7 C 93 % 0 lf 1019,9 hPa 0,0 l/m 0 min 0 min 0 W/m 10,5 km/h (2 Bft) 91,49 %
09.06.2016 04:28 12,7 C 12,8 C 11,7 C 93 % 0 lf 1019,9 hPa 0,0 l/m 0 min 0 min 0 W/m 10,5 km/h (2 Bft) 91,30 %
09.06.2016 04:30 12,7 C 12,8 C 11,7 C 93 % 0 lf 1020,0 hPa 0,0 l/m 0 min 0 min 0 W/m 10,5 km/h (2 Bft) 91,49 %
09.06.2016 04:32 12,7 C 12,8 C 11,7 C 93 % 0 lf 1020,0 hPa 0,0 l/m 0 min 0 min 0 W/m 14,6 km/h (3 Bft) 93,62 %
09.06.2016 04:34 12,7 C 12,8 C 11,7 C 93 % 0 lf 1019,9 hPa 0,0 l/m 0 min 0 min 0 W/m 8,4 km/h (2 Bft) 91,49 %
09.06.2016 04:36 12,7 C 12,8 C 11,7 C 93 % 0 lf 1020,0 hPa 0,0 l/m 0 min 0 min 0 W/m 12,6 km/h (3 Bft) 94,74 %
09.06.2016 04:38 12,7 C 12,2 C 11,7 C 93 % 0 lf 1020,0 hPa 0,0 l/m 0 min 0 min 0 W/m 10,5 km/h (2 Bft) 95,74 %
09.06.2016 04:40 12,7 C 12,2 C 11,7 C 93 % 0 lf 1020,0 hPa 0,0 l/m 0 min 0 min 0 W/m 8,4 km/h (2 Bft) 93,62 %
09.06.2016 04:42 12,6 C 12,2 C 11,7 C 93 % 0 lf 1020,0 hPa 0,0 l/m 0 min 0 min 0 W/m 8,4 km/h (2 Bft) 93,48 %
09.06.2016 04:44 12,6 C 12,2 C 11,7 C 93 % 0 lf 1020,0 hPa 0,0 l/m 0 min 0 min 0 W/m 6,3 km/h (2 Bft) 93,62 %
09.06.2016 04:46 12,6 C 12,2 C 11,1 C 93 % 0 lf 1019,9 hPa 0,0 l/m 0 min 0 min 0 W/m 8,4 km/h (2 Bft) 95,74 %
09.06.2016 04:48 12,6 C 12,2 C 11,1 C 93 % 0 lf 1020,0 hPa 0,0 l/m 0 min 0 min 0 W/m 6,3 km/h (2 Bft) 95,74 %
09.06.2016 04:50 12,6 C 12,2 C 11,7 C 93 % 0 lf 1020,0 hPa 0,0 l/m 0 min 0 min 0 W/m 6,3 km/h (2 Bft) 93,62 %
09.06.2016 04:52 12,6 C 12,2 C 11,7 C 93 % 0 lf 1020,0 hPa 0,0 l/m 0 min 0 min 0 W/m 8,4 km/h (2 Bft) 95,74 %
09.06.2016 04:54 12,6 C 12,2 C 11,7 C 93 % 0 lf 1019,9 hPa 0,0 l/m 0 min 0 min 0 W/m 10,5 km/h (2 Bft) 95,65 %
09.06.2016 04:56 12,6 C 12,2 C 11,7 C 93 % 0 lf 1020,0 hPa 0,0 l/m 0 min 0 min 0 W/m 10,5 km/h (2 Bft) 95,74 %
09.06.2016 04:58 12,6 C 12,2 C 11,7 C 93 % 0 lf 1020,0 hPa 0,0 l/m 0 min 0 min 0 W/m 8,4 km/h (2 Bft) 95,74 %
09.06.2016 05:00 12,6 C 12,2 C 11,7 C 93 % 0 lf 1019,9 hPa 0,0 l/m 0 min 0 min 0 W/m 8,4 km/h (2 Bft) 97,87 %
09.06.2016 05:02 12,6 C 12,2 C 11,7 C 93 % 0 lf 1019,9 hPa 0,0 l/m 0 min 0 min 0 W/m 6,3 km/h (2 Bft) 93,62 %
09.06.2016 05:04 12,6 C 12,2 C 11,7 C 93 % 0 lf 1019,9 hPa 0,0 l/m 0 min 0 min 0 W/m 4,2 km/h (1 Bft) 95,74 %
09.06.2016 05:06 12,6 C 12,2 C 11,7 C 93 % 0 lf 1019,9 hPa 0,0 l/m 0 min 0 min 0 W/m 6,3 km/h (2 Bft) 97,92 %
09.06.2016 05:08 12,6 C 12,2 C 11,7 C 93 % 0 lf 1019,9 hPa 0,0 l/m 0 min 0 min 0 W/m 4,2 km/h (1 Bft) 97,87 %
09.06.2016 05:10 12,6 C 12,2 C 11,7 C 93 % 0 lf 1019,9 hPa 0,0 l/m 0 min 0 min 0 W/m 4,2 km/h (1 Bft) 93,62 %
09.06.2016 05:12 12,6 C 12,2 C 11,7 C 93 % 0 lf 1019,9 hPa 0,0 l/m 0 min 0 min 2 W/m 12,6 km/h (3 Bft) 95,74 %
09.06.2016 05:14 12,6 C 12,2 C 11,7 C 93 % 0 lf 1019,9 hPa 0,0 l/m 0 min 0 min 5 W/m 12,6 km/h (3 Bft) 97,87 %
09.06.2016 05:16 12,6 C 12,2 C 11,7 C 93 % 0 lf 1019,9 hPa 0,0 l/m 0 min 0 min 5 W/m 6,3 km/h (2 Bft) 95,65 %
09.06.2016 05:18 12,6 C 12,2 C 11,7 C 93 % 0 lf 1019,9 hPa 0,0 l/m 0 min 0 min 5 W/m 6,3 km/h (2 Bft) 95,74 %
09.06.2016 05:20 12,6 C 12,2 C 11,7 C 93 % 0 lf 1019,9 hPa 0,0 l/m 0 min 0 min 5 W/m 10,5 km/h (2 Bft) 97,87 %
09.06.2016 05:22 12,6 C 12,2 C 11,7 C 93 % 0 lf 1019,9 hPa 0,0 l/m 0 min 0 min 5 W/m 12,6 km/h (3 Bft) 97,87 %
09.06.2016 05:24 12,6 C 12,2 C 11,7 C 93 % 0 lf 1019,9 hPa 0,0 l/m 0 min 0 min 5 W/m 10,5 km/h (2 Bft) 97,87 %
09.06.2016 05:26 12,6 C 12,2 C 11,7 C 93 % 0 lf 1019,9 hPa 0,0 l/m 0 min 0 min 7 W/m 10,5 km/h (2 Bft) 97,87 %
09.06.2016 05:28 12,6 C 12,2 C 11,1 C 93 % 0 lf 1019,9 hPa 0,0 l/m 0 min 0 min 7 W/m 8,4 km/h (2 Bft) 97,83 %
09.06.2016 05:30 12,5 C 12,2 C 11,1 C 93 % 0 lf 1019,9 hPa 0,0 l/m 0 min 0 min 7 W/m 8,4 km/h (2 Bft) 97,87 %
09.06.2016 05:32 12,5 C 12,2 C 11,1 C 93 % 0 lf 1019,9 hPa 0,0 l/m 0 min 0 min 8 W/m 10,5 km/h (2 Bft) 100,00 %
09.06.2016 05:34 12,5 C 12,2 C 11,1 C 93 % 0 lf 1019,9 hPa 0,0 l/m 0 min 0 min 8 W/m 10,5 km/h (2 Bft) 100,00 %
09.06.2016 05:36 12,5 C 12,2 C 11,7 C 93 % 0 lf 1019,9 hPa 0,0 l/m 0 min 0 min 9 W/m 6,3 km/h (2 Bft) 97,87 %
09.06.2016 05:38 12,5 C 12,2 C 11,7 C 93 % 0 lf 1019,9 hPa 0,0 l/m 0 min 0 min 9 W/m 12,6 km/h (3 Bft) 100,00 %
09.06.2016 05:40 12,4 C 12,2 C 11,7 C 93 % 0 lf 1019,9 hPa 0,0 l/m 0 min 0 min 9 W/m 8,4 km/h (2 Bft) 97,83 %
09.06.2016 05:42 12,4 C 12,2 C 11,7 C 93 % 0 lf 1019,9 hPa 0,0 l/m 0 min 0 min 9 W/m 12,6 km/h (3 Bft) 95,74 %
09.06.2016 05:44 12,4 C 12,2 C 11,7 C 93 % 0 lf 1019,9 hPa 0,0 l/m 0 min 0 min 11 W/m 14,6 km/h (3 Bft) 97,87 %
09.06.2016 05:46 12,4 C 12,2 C 11,7 C 93 % 0 lf 1020,0 hPa 0,0 l/m 0 min 0 min 12 W/m 10,5 km/h (2 Bft) 97,87 %
09.06.2016 05:48 12,4 C 12,2 C 11,7 C 93 % 0 lf 1020,0 hPa 0,0 l/m 0 min 0 min 14 W/m 14,6 km/h (3 Bft) 100,00 %
09.06.2016 05:50 12,4 C 12,2 C 11,7 C 93 % 0 lf 1020,0 hPa 0,0 l/m 0 min 0 min 14 W/m 12,6 km/h (3 Bft) 97,83 %
09.06.2016 05:52 12,4 C 12,2 C 11,7 C 93 % 0 lf 1020,0 hPa 0,0 l/m 0 min 0 min 14 W/m 10,5 km/h (2 Bft) 93,62 %
09.06.2016 05:54 12,4 C 12,2 C 11,7 C 93 % 0 lf 1020,0 hPa 0,0 l/m 0 min 0 min 15 W/m 14,6 km/h (3 Bft) 97,87 %
09.06.2016 05:56 12,4 C 12,2 C 11,1 C 93 % 0 lf 1020,0 hPa 0,0 l/m 0 min 0 min 17 W/m 16,7 km/h (3 Bft) 97,87 %
09.06.2016 05:58 12,4 C 12,2 C 11,7 C 93 % 0 lf 1020,0 hPa 0,0 l/m 0 min 0 min 25 W/m 10,5 km/h (2 Bft) 97,87 %
09.06.2016 06:00 12,3 C 12,2 C 11,7 C 93 % 0 lf 1020,1 hPa 0,0 l/m 0 min 0 min 30 W/m 10,5 km/h (2 Bft) 93,62 %
09.06.2016 06:02 12,3 C 12,2 C 11,7 C 93 % 0 lf 1020,1 hPa 0,0 l/m 0 min 0 min 33 W/m 14,6 km/h (3 Bft) 95,65 %
09.06.2016 06:04 12,3 C 12,2 C 11,1 C 93 % 0 lf 1020,1 hPa 0,0 l/m 0 min 0 min 31 W/m 8,4 km/h (2 Bft) 93,62 %
09.06.2016 06:06 12,3 C 12,2 C 11,1 C 93 % 0 lf 1020,1 hPa 0,0 l/m 0 min 0 min 29 W/m 10,5 km/h (2 Bft) 97,87 %
09.06.2016 06:08 12,3 C 12,2 C 11,1 C 93 % 0 lf 1020,1 hPa 0,0 l/m 0 min 0 min 32 W/m 14,6 km/h (3 Bft) 97,87 %
09.06.2016 06:10 12,3 C 12,2 C 11,1 C 93 % 0 lf 1020,1 hPa 0,0 l/m 0 min 0 min 33 W/m 10,5 km/h (2 Bft) 93,62 %
09.06.2016 06:12 12,3 C 12,2 C 11,1 C 93 % 0 lf 1020,1 hPa 0,0 l/m 0 min 0 min 30 W/m 12,6 km/h (3 Bft) 93,62 %
09.06.2016 06:14 12,2 C 12,2 C 11,1 C 93 % 0 lf 1020,1 hPa 0,0 l/m 0 min 0 min 30 W/m 10,5 km/h (2 Bft) 95,74 %
09.06.2016 06:16 12,2 C 12,2 C 11,1 C 93 % 0 lf 1020,2 hPa 0,0 l/m 0 min 0 min 32 W/m 10,5 km/h (2 Bft) 95,65 %
09.06.2016 06:18 12,2 C 12,2 C 11,1 C 93 % 0 lf 1020,3 hPa 0,0 l/m 0 min 0 min 34 W/m 12,6 km/h (3 Bft) 95,74 %
09.06.2016 06:20 12,2 C 12,2 C 11,1 C 93 % 0 lf 1020,3 hPa 0,0 l/m 0 min 0 min 39 W/m 12,6 km/h (3 Bft) 93,62 %
09.06.2016 06:22 12,2 C 12,2 C 11,1 C 93 % 0 lf 1020,3 hPa 0,0 l/m 0 min 0 min 45 W/m 10,5 km/h (2 Bft) 93,62 %
09.06.2016 06:24 12,2 C 12,2 C 11,1 C 93 % 0 lf 1020,2 hPa 0,0 l/m 0 min 0 min 54 W/m 10,5 km/h (2 Bft) 95,74 %
09.06.2016 06:26 12,2 C 12,2 C 11,1 C 93 % 0 lf 1020,1 hPa 0,0 l/m 0 min 0 min 58 W/m 10,5 km/h (2 Bft) 95,65 %
09.06.2016 06:28 12,2 C 12,2 C 11,1 C 93 % 0 lf 1020,2 hPa 0,0 l/m 2 min 0 min 69 W/m 12,6 km/h (3 Bft) 95,74 %
09.06.2016 06:30 12,2 C 12,2 C 11,1 C 93 % 0 lf 1020,2 hPa 0,0 l/m 0 min 0 min 56 W/m 8,4 km/h (2 Bft) 95,74 %
09.06.2016 06:32 12,1 C 12,2 C 11,1 C 93 % 0 lf 1020,2 hPa 0,0 l/m 0 min 0 min 55 W/m 8,4 km/h (2 Bft) 97,87 %
09.06.2016 06:34 12,1 C 12,2 C 11,1 C 93 % 0 lf 1020,2 hPa 0,0 l/m 0 min 0 min 53 W/m 6,3 km/h (2 Bft) 97,87 %
09.06.2016 06:36 12,1 C 12,2 C 11,7 C 93 % 0 lf 1020,2 hPa 0,0 l/m 0 min 0 min 55 W/m 10,5 km/h (2 Bft) 97,67 %
09.06.2016 06:38 12,1 C 12,2 C 11,7 C 93 % 0 lf 1020,3 hPa 0,0 l/m 0 min 0 min 51 W/m 8,4 km/h (2 Bft) 97,83 %
09.06.2016 06:40 12,1 C 12,2 C 11,7 C 93 % 0 lf 1020,3 hPa 0,0 l/m 0 min 0 min 52 W/m 8,4 km/h (2 Bft) 95,74 %
09.06.2016 06:42 12,1 C 12,2 C 11,7 C 93 % 0 lf 1020,2 hPa 0,0 l/m 0 min 0 min 62 W/m 10,5 km/h (2 Bft) 97,87 %
09.06.2016 06:44 12,1 C 12,8 C 11,7 C 93 % 0 lf 1020,2 hPa 0,0 l/m 0 min 0 min 64 W/m 8,4 km/h (2 Bft) 95,74 %
09.06.2016 06:46 12,1 C 12,8 C 11,7 C 93 % 0 lf 1020,3 hPa 0,0 l/m 0 min 0 min 59 W/m 6,3 km/h (2 Bft) 93,62 %
09.06.2016 06:48 12,1 C 12,8 C 11,7 C 93 % 0 lf 1020,2 hPa 0,0 l/m 0 min 0 min 55 W/m 10,5 km/h (2 Bft) 97,87 %
09.06.2016 06:50 12,1 C 12,8 C 11,7 C 93 % 0 lf 1020,2 hPa 0,0 l/m 0 min 0 min 46 W/m 10,5 km/h (2 Bft) 98,28 %
09.06.2016 06:52 12,1 C 12,8 C 11,7 C 93 % 0 lf 1020,1 hPa 0,0 l/m 0 min 0 min 46 W/m 8,4 km/h (2 Bft) 97,14 %
09.06.2016 06:54 12,1 C 12,8 C 11,7 C 93 % 0 lf 1020,1 hPa 0,0 l/m 0 min 0 min 44 W/m 8,4 km/h (2 Bft) 100,00 %
09.06.2016 06:56 12,1 C 12,8 C 11,7 C 93 % 0 lf 1020,1 hPa 0,0 l/m 0 min 0 min 40 W/m 8,4 km/h (2 Bft) 97,87 %
09.06.2016 06:58 12,1 C 12,8 C 11,7 C 93 % 0 lf 1020,1 hPa 0,0 l/m 0 min 0 min 45 W/m 12,6 km/h (3 Bft) 100,00 %
09.06.2016 07:00 12,1 C 12,2 C 11,7 C 93 % 0 lf 1020,1 hPa 0,0 l/m 0 min 0 min 52 W/m 12,6 km/h (3 Bft) 100,00 %
09.06.2016 07:02 12,1 C 12,2 C 11,7 C 93 % 0 lf 1020,1 hPa 0,0 l/m 0 min 0 min 62 W/m 10,5 km/h (2 Bft) 97,83 %
09.06.2016 07:04 12,1 C 12,2 C 11,1 C 93 % 0 lf 1020,1 hPa 0,0 l/m 0 min 0 min 65 W/m 8,4 km/h (2 Bft) 97,87 %
09.06.2016 07:06 12,1 C 12,2 C 11,1 C 92 % 0 lf 1020,0 hPa 0,0 l/m 0 min 0 min 68 W/m 12,6 km/h (3 Bft) 98,00 %
09.06.2016 07:08 12,0 C 12,2 C 11,1 C 93 % 0 lf 1020,1 hPa 0,0 l/m 0 min 0 min 70 W/m 12,6 km/h (3 Bft) 95,74 %
09.06.2016 07:10 12,0 C 12,2 C 11,1 C 92 % 0 lf 1020,0 hPa 0,0 l/m 0 min 0 min 77 W/m 10,5 km/h (2 Bft) 97,87 %
09.06.2016 07:12 12,0 C 12,2 C 11,1 C 92 % 0 lf 1020,1 hPa 0,0 l/m 0 min 0 min 94 W/m 8,4 km/h (2 Bft) 97,87 %
09.06.2016 07:14 12,0 C 12,2 C 11,1 C 92 % 0 lf 1020,0 hPa 0,0 l/m 0 min 0 min 105 W/m 12,6 km/h (3 Bft) 97,83 %
09.06.2016 07:16 12,0 C 12,2 C 11,1 C 92 % 0 lf 1020,0 hPa 0,0 l/m 0 min 0 min 93 W/m 8,4 km/h (2 Bft) 97,87 %
09.06.2016 07:18 12,0 C 12,2 C 11,1 C 92 % 0 lf 1020,0 hPa 0,0 l/m 0 min 0 min 109 W/m 14,6 km/h (3 Bft) 97,87 %
09.06.2016 07:20 11,9 C 12,2 C 11,1 C 92 % 0 lf 1020,0 hPa 0,0 l/m 2 min 0 min 133 W/m 16,7 km/h (3 Bft) 95,74 %
09.06.2016 07:22 11,9 C 12,8 C 11,1 C 92 % 0 lf 1020,0 hPa 0,0 l/m 2 min 0 min 142 W/m 16,7 km/h (3 Bft) 95,74 %
09.06.2016 07:24 11,9 C 12,8 C 11,1 C 92 % 0 lf 1020,1 hPa 0,0 l/m 2 min 0 min 154 W/m 14,6 km/h (3 Bft) 97,83 %
09.06.2016 07:26 11,9 C 12,8 C 11,7 C 92 % 0 lf 1020,0 hPa 0,0 l/m 2 min 0 min 164 W/m 8,4 km/h (2 Bft) 97,87 %
09.06.2016 07:28 11,9 C 12,8 C 11,7 C 92 % 0 lf 1020,0 hPa 0,0 l/m 2 min 0 min 174 W/m 14,6 km/h (3 Bft) 95,74 %
09.06.2016 07:30 11,9 C 12,8 C 11,7 C 92 % 0 lf 1019,9 hPa 0,0 l/m 2 min 0 min 178 W/m 14,6 km/h (3 Bft) 97,87 %
09.06.2016 07:32 11,9 C 12,8 C 11,7 C 92 % 0 lf 1020,0 hPa 0,0 l/m 2 min 0 min 185 W/m 14,6 km/h (3 Bft) 93,62 %
09.06.2016 07:34 11,9 C 12,8 C 11,7 C 92 % 0 lf 1020,0 hPa 0,0 l/m 2 min 0 min 199 W/m 10,5 km/h (2 Bft) 95,74 %
09.06.2016 07:36 11,9 C 13,3 C 11,7 C 92 % 0 lf 1020,0 hPa 0,0 l/m 2 min 0 min 219 W/m 20,9 km/h (4 Bft) 95,74 %
09.06.2016 07:38 11,9 C 13,3 C 11,7 C 91 % 0 lf 1020,1 hPa 0,0 l/m 2 min 0 min 222 W/m 12,6 km/h (3 Bft) 97,87 %
09.06.2016 07:40 11,9 C 13,3 C 12,2 C 91 % 0 lf 1020,1 hPa 0,0 l/m 2 min 0 min 236 W/m 10,5 km/h (2 Bft) 91,49 %
09.06.2016 07:42 12,0 C 13,3 C 12,2 C 91 % 0 lf 1020,0 hPa 0,0 l/m 2 min 0 min 258 W/m 8,4 km/h (2 Bft) 95,74 %
09.06.2016 07:44 12,0 C 13,3 C 12,2 C 91 % 0 lf 1020,0 hPa 0,0 l/m 2 min 0 min 255 W/m 18,8 km/h (3 Bft) 95,74 %
09.06.2016 07:46 12,0 C 13,3 C 12,2 C 91 % 0 lf 1020,0 hPa 0,0 l/m 2 min 0 min 207 W/m 18,8 km/h (3 Bft) 97,87 %
09.06.2016 07:48 12,0 C 13,3 C 12,2 C 90 % 0 lf 1020,1 hPa 0,0 l/m 2 min 0 min 186 W/m 16,7 km/h (3 Bft) 95,65 %
09.06.2016 07:50 12,1 C 13,9 C 12,2 C 90 % 0 lf 1020,1 hPa 0,0 l/m 2 min 0 min 267 W/m 16,7 km/h (3 Bft) 93,62 %
09.06.2016 07:52 12,1 C 13,9 C 12,2 C 89 % 0 lf 1020,0 hPa 0,0 l/m 2 min 0 min 298 W/m 14,6 km/h (3 Bft) 93,62 %
09.06.2016 07:54 12,1 C 13,9 C 12,2 C 89 % 0 lf 1020,0 hPa 0,0 l/m 2 min 0 min 271 W/m 16,7 km/h (3 Bft) 95,74 %
09.06.2016 07:56 12,2 C 13,9 C 12,2 C 89 % 0 lf 1020,0 hPa 0,0 l/m 2 min 0 min 177 W/m 14,6 km/h (3 Bft) 93,62 %
09.06.2016 07:58 12,2 C 13,9 C 12,2 C 89 % 0 lf 1020,0 hPa 0,0 l/m 2 min 0 min 270 W/m 14,6 km/h (3 Bft) 97,87 %
09.06.2016 08:00 12,2 C 13,9 C 12,2 C 88 % 0 lf 1020,0 hPa 0,0 l/m 2 min 0 min 349 W/m 14,6 km/h (3 Bft) 95,65 %
09.06.2016 08:02 12,2 C 13,9 C 12,2 C 88 % 0 lf 1020,0 hPa 0,0 l/m 2 min 0 min 347 W/m 16,7 km/h (3 Bft) 91,49 %
09.06.2016 08:04 12,3 C 13,9 C 12,2 C 87 % 0 lf 1020,0 hPa 0,0 l/m 2 min 0 min 360 W/m 16,7 km/h (3 Bft) 97,87 %
09.06.2016 08:06 12,3 C 14,4 C 12,2 C 87 % 0 lf 1020,1 hPa 0,0 l/m 2 min 0 min 369 W/m 10,5 km/h (2 Bft) 97,87 %
09.06.2016 08:08 12,4 C 14,4 C 12,2 C 87 % 0 lf 1020,0 hPa 0,0 l/m 2 min 0 min 391 W/m 10,5 km/h (2 Bft) 97,87 %
09.06.2016 08:10 12,4 C 14,4 C 12,8 C 87 % 0 lf 1020,0 hPa 0,0 l/m 2 min 0 min 360 W/m 8,4 km/h (2 Bft) 97,87 %
09.06.2016 08:12 12,5 C 15,0 C 12,8 C 87 % 0 lf 1020,0 hPa 0,0 l/m 2 min 0 min 386 W/m 14,6 km/h (3 Bft) 93,48 %
09.06.2016 08:14 12,5 C 14,4 C 12,8 C 87 % 0 lf 1020,0 hPa 0,0 l/m 2 min 0 min 396 W/m 12,6 km/h (3 Bft) 97,87 %
09.06.2016 08:16 12,6 C 15,0 C 12,8 C 87 % 0 lf 1020,0 hPa 0,0 l/m 2 min 0 min 380 W/m 14,6 km/h (3 Bft) 93,62 %
09.06.2016 08:18 12,7 C 15,0 C 12,8 C 87 % 0 lf 1020,0 hPa 0,0 l/m 2 min 0 min 378 W/m 12,6 km/h (3 Bft) 93,62 %
09.06.2016 08:20 12,7 C 15,6 C 12,8 C 86 % 0 lf 1020,0 hPa 0,0 l/m 2 min 0 min 406 W/m 14,6 km/h (3 Bft) 95,74 %
09.06.2016 08:22 12,7 C 16,1 C 13,3 C 86 % 0 lf 1020,0 hPa 0,0 l/m 2 min 0 min 413 W/m 16,7 km/h (3 Bft) 97,83 %
09.06.2016 08:24 12,8 C 16,7 C 13,3 C 86 % 0 lf 1019,9 hPa 0,0 l/m 2 min 0 min 452 W/m 8,4 km/h (2 Bft) 97,87 %
09.06.2016 08:26 12,8 C 16,7 C 13,3 C 86 % 0 lf 1020,0 hPa 0,0 l/m 2 min 0 min 225 W/m 14,6 km/h (3 Bft) 95,74 %
09.06.2016 08:28 12,9 C 16,7 C 12,8 C 86 % 0 lf 1020,0 hPa 0,0 l/m 0 min 0 min 198 W/m 14,6 km/h (3 Bft) 97,87 %
09.06.2016 08:30 12,9 C 17,2 C 12,8 C 86 % 0 lf 1020,0 hPa 0,0 l/m 2 min 0 min 323 W/m 14,6 km/h (3 Bft) 93,62 %
09.06.2016 08:32 12,9 C 18,3 C 12,8 C 86 % 0 lf 1020,1 hPa 0,0 l/m 2 min 0 min 416 W/m 14,6 km/h (3 Bft) 97,87 %
09.06.2016 08:34 13,0 C 20,0 C 13,3 C 85 % 0 lf 1020,0 hPa 0,0 l/m 2 min 0 min 476 W/m 12,6 km/h (3 Bft) 95,74 %
09.06.2016 08:36 13,1 C 20,0 C 13,9 C 86 % 0 lf 1020,0 hPa 0,0 l/m 2 min 0 min 513 W/m 18,8 km/h (3 Bft) 95,65 %
09.06.2016 08:38 13,1 C 20,0 C 13,9 C 85 % 0 lf 1020,0 hPa 0,0 l/m 2 min 0 min 504 W/m 16,7 km/h (3 Bft) 91,49 %
09.06.2016 08:40 13,1 C 20,6 C 13,9 C 84 % 0 lf 1019,9 hPa 0,0 l/m 2 min 0 min 512 W/m 18,8 km/h (3 Bft) 95,74 %
09.06.2016 08:42 13,2 C 21,7 C 13,9 C 84 % 0 lf 1019,9 hPa 0,0 l/m 2 min 0 min 515 W/m 18,8 km/h (3 Bft) 95,74 %
09.06.2016 08:44 13,3 C 22,2 C 14,4 C 85 % 0 lf 1019,9 hPa 0,0 l/m 2 min 0 min 553 W/m 16,7 km/h (3 Bft) 97,87 %
09.06.2016 08:46 13,4 C 22,2 C 14,4 C 85 % 0 lf 1019,8 hPa 0,0 l/m 2 min 0 min 570 W/m 18,8 km/h (3 Bft) 93,48 %
09.06.2016 08:48 13,6 C 21,7 C 13,9 C 83 % 0 lf 1019,9 hPa 0,0 l/m 2 min 0 min 578 W/m 18,8 km/h (3 Bft) 95,74 %
09.06.2016 08:50 13,6 C 22,8 C 13,9 C 83 % 0 lf 1019,9 hPa 0,0 l/m 2 min 0 min 588 W/m 12,6 km/h (3 Bft) 95,74 %
09.06.2016 08:52 13,7 C 22,8 C 13,9 C 83 % 0 lf 1019,8 hPa 0,0 l/m 2 min 0 min 588 W/m 16,7 km/h (3 Bft) 95,74 %
09.06.2016 08:54 13,7 C 22,2 C 13,9 C 82 % 0 lf 1019,8 hPa 0,0 l/m 2 min 0 min 562 W/m 14,6 km/h (3 Bft) 97,87 %
09.06.2016 08:56 13,8 C 21,1 C 13,9 C 82 % 0 lf 1019,8 hPa 0,0 l/m 2 min 0 min 442 W/m 16,7 km/h (3 Bft) 95,74 %
09.06.2016 08:58 13,8 C 21,7 C 13,9 C 82 % 0 lf 1019,8 hPa 0,0 l/m 2 min 0 min 507 W/m 12,6 km/h (3 Bft) 91,30 %
09.06.2016 09:00 13,9 C 22,2 C 14,4 C 81 % 0 lf 1019,8 hPa 0,0 l/m 2 min 0 min 549 W/m 14,6 km/h (3 Bft) 91,49 %
09.06.2016 09:02 13,9 C 22,8 C 14,4 C 81 % 0 lf 1019,8 hPa 0,0 l/m 2 min 0 min 559 W/m 12,6 km/h (3 Bft) 95,74 %
09.06.2016 09:04 14,0 C 22,8 C 14,4 C 81 % 0 lf 1019,7 hPa 0,0 l/m 2 min 0 min 488 W/m 10,5 km/h (2 Bft) 95,74 %
09.06.2016 09:06 14,1 C 22,8 C 14,4 C 81 % 0 lf 1019,7 hPa 0,0 l/m 2 min 0 min 457 W/m 12,6 km/h (3 Bft) 95,74 %
09.06.2016 09:08 14,2 C 21,7 C 14,4 C 81 % 0 lf 1019,8 hPa 0,0 l/m 2 min 0 min 529 W/m 10,5 km/h (2 Bft) 93,62 %
09.06.2016 09:10 14,2 C 21,7 C 15,0 C 81 % 0 lf 1019,8 hPa 0,0 l/m 2 min 0 min 580 W/m 14,6 km/h (3 Bft) 93,48 %
09.06.2016 09:12 14,2 C 22,2 C 15,0 C 81 % 0 lf 1019,8 hPa 0,0 l/m 2 min 0 min 571 W/m 18,8 km/h (3 Bft) 95,74 %
09.06.2016 09:14 14,3 C 22,2 C 15,0 C 81 % 0 lf 1019,8 hPa 0,0 l/m 2 min 0 min 525 W/m 14,6 km/h (3 Bft) 93,62 %
09.06.2016 09:16 14,3 C 21,7 C 15,0 C 80 % 0 lf 1019,8 hPa 0,0 l/m 2 min 0 min 542 W/m 14,6 km/h (3 Bft) 95,74 %
09.06.2016 09:18 14,4 C 22,2 C 15,0 C 80 % 0 lf 1019,9 hPa 0,0 l/m 2 min 0 min 582 W/m 18,8 km/h (3 Bft) 93,62 %
09.06.2016 09:20 14,4 C 23,3 C 15,6 C 80 % 0 lf 1019,8 hPa 0,0 l/m 2 min 0 min 688 W/m 6,3 km/h (2 Bft) 95,74 %
09.06.2016 09:22 14,5 C 23,3 C 15,6 C 80 % 0 lf 1019,8 hPa 0,0 l/m 2 min 0 min 668 W/m 12,6 km/h (3 Bft) 97,83 %
09.06.2016 09:24 14,6 C 22,8 C 16,1 C 80 % 0 lf 1019,9 hPa 0,0 l/m 2 min 0 min 673 W/m 12,6 km/h (3 Bft) 97,87 %
09.06.2016 09:26 14,6 C 23,3 C 16,1 C 80 % 0 lf 1019,8 hPa 0,0 l/m 2 min 0 min 677 W/m 12,6 km/h (3 Bft) 97,87 %
09.06.2016 09:28 14,8 C 23,9 C 16,7 C 80 % 0 lf 1019,8 hPa 0,0 l/m 2 min 0 min 660 W/m 10,5 km/h (2 Bft) 93,62 %
09.06.2016 09:30 14,9 C 23,9 C 16,7 C 80 % 0 lf 1019,9 hPa 0,0 l/m 2 min 0 min 633 W/m 16,7 km/h (3 Bft) 89,36 %
09.06.2016 09:32 15,0 C 23,9 C 16,7 C 80 % 0 lf 1019,8 hPa 0,0 l/m 2 min 0 min 675 W/m 12,6 km/h (3 Bft) 95,74 %
09.06.2016 09:34 15,1 C 23,9 C 16,7 C 80 % 0 lf 1019,8 hPa 0,0 l/m 2 min 0 min 707 W/m 14,6 km/h (3 Bft) 93,48 %
09.06.2016 09:36 15,2 C 22,2 C 16,7 C 81 % 0 lf 1019,8 hPa 0,0 l/m 2 min 0 min 707 W/m 10,5 km/h (2 Bft) 97,67 %
09.06.2016 09:38 15,3 C 20,6 C 16,1 C 80 % 0 lf 1019,9 hPa 0,0 l/m 2 min 0 min 707 W/m 16,7 km/h (3 Bft) 95,74 %
09.06.2016 09:40 15,3 C 20,0 C 15,6 C 79 % 0 lf 1019,8 hPa 0,0 l/m 2 min 0 min 586 W/m 12,6 km/h (3 Bft) 93,62 %
09.06.2016 09:42 15,3 C 18,3 C 15,6 C 79 % 0 lf 1019,8 hPa 0,0 l/m 0 min 0 min 188 W/m 12,6 km/h (3 Bft) 97,87 %
09.06.2016 09:44 15,3 C 18,3 C 15,0 C 78 % 0 lf 1019,8 hPa 0,0 l/m 0 min 0 min 227 W/m 10,5 km/h (2 Bft) 100,00 %
09.06.2016 09:46 15,3 C 18,9 C 15,0 C 78 % 0 lf 1019,7 hPa 0,0 l/m 2 min 0 min 374 W/m 12,6 km/h (3 Bft) 97,14 %
09.06.2016 09:48 15,3 C 18,9 C 15,0 C 78 % 0 lf 1019,7 hPa 0,0 l/m 0 min 0 min 220 W/m 14,6 km/h (3 Bft) 98,39 %
09.06.2016 09:50 15,3 C 20,0 C 15,0 C 77 % 0 lf 1019,7 hPa 0,0 l/m 2 min 0 min 314 W/m 14,6 km/h (3 Bft) 97,87 %
09.06.2016 09:52 15,2 C 20,6 C 15,0 C 77 % 0 lf 1019,7 hPa 0,0 l/m 2 min 0 min 487 W/m 12,6 km/h (3 Bft) 93,62 %
09.06.2016 09:54 15,3 C 21,7 C 15,6 C 77 % 0 lf 1019,7 hPa 0,0 l/m 2 min 0 min 559 W/m 16,7 km/h (3 Bft) 97,87 %
09.06.2016 09:56 15,2 C 20,6 C 15,6 C 76 % 0 lf 1019,7 hPa 0,0 l/m 2 min 0 min 379 W/m 16,7 km/h (3 Bft) 97,87 %
09.06.2016 09:58 15,2 C 19,4 C 15,6 C 76 % 0 lf 1019,7 hPa 0,0 l/m 0 min 0 min 204 W/m 14,6 km/h (3 Bft) 97,83 %
09.06.2016 10:00 15,2 C 19,4 C 15,6 C 77 % 0 lf 1019,8 hPa 0,0 l/m 0 min 0 min 219 W/m 10,5 km/h (2 Bft) 95,74 %
09.06.2016 10:02 15,2 C 20,0 C 16,7 C 76 % 0 lf 1019,8 hPa 0,0 l/m 0 min 0 min 250 W/m 12,6 km/h (3 Bft) 95,74 %
09.06.2016 10:04 15,2 C 20,6 C 17,8 C 77 % 0 lf 1019,8 hPa 0,0 l/m 0 min 0 min 250 W/m 14,6 km/h (3 Bft) 91,49 %
09.06.2016 10:06 15,2 C 20,6 C 17,2 C 76 % 0 lf 1019,8 hPa 0,0 l/m 0 min 0 min 250 W/m 12,6 km/h (3 Bft) 95,74 %
09.06.2016 10:08 15,2 C 20,0 C 16,7 C 76 % 0 lf 1019,8 hPa 0,0 l/m 0 min 0 min 187 W/m 10,5 km/h (2 Bft) 95,74 %
09.06.2016 10:10 15,3 C 21,1 C 17,8 C 76 % 0 lf 1019,8 hPa 0,0 l/m 0 min 0 min 209 W/m 12,6 km/h (3 Bft) 95,65 %
09.06.2016 10:12 15,3 C 23,3 C 20,0 C 76 % 0 lf 1019,9 hPa 0,0 l/m 2 min 0 min 625 W/m 8,4 km/h (2 Bft) 95,74 %
09.06.2016 10:14 15,4 C 25,0 C 21,7 C 77 % 0 lf 1019,8 hPa 0,0 l/m 2 min 0 min 721 W/m 16,7 km/h (3 Bft) 95,74 %
09.06.2016 10:16 15,4 C 25,0 C 21,7 C 76 % 0 lf 1019,8 hPa 0,0 l/m 2 min 0 min 742 W/m 8,4 km/h (2 Bft) 93,62 %
09.06.2016 10:18 15,5 C 22,8 C 20,6 C 75 % 0 lf 1019,8 hPa 0,0 l/m 2 min 0 min 388 W/m 6,3 km/h (2 Bft) 95,74 %
09.06.2016 10:20 15,6 C 24,4 C 21,1 C 74 % 0 lf 1019,7 hPa 0,0 l/m 2 min 0 min 430 W/m 12,6 km/h (3 Bft) 93,48 %
09.06.2016 10:22 15,6 C 25,6 C 21,7 C 75 % 0 lf 1019,7 hPa 0,0 l/m 2 min 0 min 777 W/m 12,6 km/h (3 Bft) 91,49 %
09.06.2016 10:24 15,7 C 26,1 C 22,2 C 75 % 0 lf 1019,7 hPa 0,0 l/m 2 min 0 min 791 W/m 12,6 km/h (3 Bft) 95,74 %
09.06.2016 10:26 15,7 C 26,1 C 22,2 C 74 % 0 lf 1019,7 hPa 0,0 l/m 2 min 0 min 792 W/m 12,6 km/h (3 Bft) 93,62 %
09.06.2016 10:28 15,8 C 26,1 C 21,7 C 74 % 0 lf 1019,7 hPa 0,0 l/m 2 min 0 min 791 W/m 10,5 km/h (2 Bft) 97,87 %
09.06.2016 10:30 15,8 C 24,4 C 21,7 C 74 % 0 lf 1019,7 hPa 0,0 l/m 2 min 0 min 788 W/m 14,6 km/h (3 Bft) 97,87 %
09.06.2016 10:32 15,9 C 25,0 C 21,7 C 74 % 0 lf 1019,7 hPa 0,0 l/m 2 min 0 min 791 W/m 16,7 km/h (3 Bft) 97,83 %
09.06.2016 10:34 15,9 C 25,6 C 22,2 C 74 % 0 lf 1019,7 hPa 0,0 l/m 2 min 0 min 774 W/m 12,6 km/h (3 Bft) 95,74 %
09.06.2016 10:36 16,0 C 26,1 C 22,8 C 74 % 0 lf 1019,6 hPa 0,0 l/m 2 min 0 min 771 W/m 14,6 km/h (3 Bft) 95,74 %
09.06.2016 10:38 16,1 C 27,2 C 22,8 C 73 % 0 lf 1019,6 hPa 0,0 l/m 2 min 0 min 776 W/m 8,4 km/h (2 Bft) 97,87 %
09.06.2016 10:40 16,2 C 27,8 C 23,3 C 74 % 0 lf 1019,6 hPa 0,0 l/m 2 min 0 min 779 W/m 8,4 km/h (2 Bft) 97,87 %
09.06.2016 10:42 16,2 C 26,7 C 23,9 C 71 % 0 lf 1019,5 hPa 0,0 l/m 2 min 0 min 779 W/m 10,5 km/h (2 Bft) 95,74 %
09.06.2016 10:44 16,3 C 27,2 C 24,4 C 71 % 0 lf 1019,6 hPa 0,0 l/m 2 min 0 min 798 W/m 8,4 km/h (2 Bft) 97,83 %
09.06.2016 10:46 16,4 C 27,2 C 25,0 C 72 % 0 lf 1019,6 hPa 0,0 l/m 2 min 0 min 799 W/m 14,6 km/h (3 Bft) 96,23 %
09.06.2016 10:48 16,4 C 27,8 C 24,4 C 71 % 0 lf 1019,6 hPa 0,0 l/m 2 min 0 min 796 W/m 16,7 km/h (3 Bft) 93,62 %
09.06.2016 10:50 16,6 C 27,2 C 23,9 C 71 % 0 lf 1019,5 hPa 0,0 l/m 2 min 0 min 796 W/m 10,5 km/h (2 Bft) 100,00 %
09.06.2016 10:52 16,6 C 27,8 C 22,8 C 69 % 0 lf 1019,5 hPa 0,0 l/m 2 min 0 min 799 W/m 16,7 km/h (3 Bft) 97,87 %
09.06.2016 10:54 16,6 C 27,8 C 23,3 C 69 % 0 lf 1019,6 hPa 0,0 l/m 2 min 0 min 797 W/m 12,6 km/h (3 Bft) 100,00 %
09.06.2016 10:56 16,6 C 27,8 C 24,4 C 68 % 0 lf 1019,6 hPa 0,0 l/m 2 min 0 min 801 W/m 14,6 km/h (3 Bft) 100,00 %
09.06.2016 10:58 16,6 C 28,3 C 23,9 C 68 % 0 lf 1019,5 hPa 0,0 l/m 2 min 0 min 803 W/m 14,6 km/h (3 Bft) 97,87 %
09.06.2016 11:00 16,7 C 28,9 C 24,4 C 69 % 0 lf 1019,5 hPa 0,0 l/m 2 min 0 min 806 W/m 12,6 km/h (3 Bft) 97,87 %
09.06.2016 11:02 16,7 C 28,3 C 23,9 C 69 % 0 lf 1019,5 hPa 0,0 l/m 2 min 0 min 805 W/m 14,6 km/h (3 Bft) 97,87 %
09.06.2016 11:04 16,7 C 27,2 C 23,3 C 68 % 0 lf 1019,5 hPa 0,0 l/m 2 min 0 min 810 W/m 20,9 km/h (4 Bft) 100,00 %
09.06.2016 11:06 16,8 C 28,9 C 23,9 C 69 % 0 lf 1019,5 hPa 0,0 l/m 2 min 0 min 814 W/m 14,6 km/h (3 Bft) 97,83 %
09.06.2016 11:08 16,9 C 27,8 C 23,9 C 69 % 0 lf 1019,5 hPa 0,0 l/m 2 min 0 min 813 W/m 18,8 km/h (3 Bft) 100,00 %
09.06.2016 11:10 16,9 C 27,8 C 24,4 C 69 % 0 lf 1019,5 hPa 0,0 l/m 2 min 0 min 817 W/m 16,7 km/h (3 Bft) 100,00 %
09.06.2016 11:12 17,0 C 26,7 C 23,9 C 69 % 0 lf 1019,5 hPa 0,0 l/m 2 min 0 min 820 W/m 20,9 km/h (4 Bft) 97,87 %
09.06.2016 11:14 17,1 C 26,7 C 23,3 C 70 % 0 lf 1019,5 hPa 0,0 l/m 2 min 0 min 826 W/m 18,8 km/h (3 Bft) 100,00 %
09.06.2016 11:16 17,1 C 27,2 C 24,4 C 68 % 0 lf 1019,4 hPa 0,0 l/m 2 min 0 min 816 W/m 14,6 km/h (3 Bft) 93,48 %
09.06.2016 11:18 17,2 C 27,8 C 25,6 C 70 % 0 lf 1019,5 hPa 0,0 l/m 2 min 0 min 846 W/m 12,6 km/h (3 Bft) 97,87 %
09.06.2016 11:20 17,3 C 27,8 C 25,6 C 72 % 0 lf 1019,5 hPa 0,0 l/m 2 min 0 min 862 W/m 18,8 km/h (3 Bft) 100,00 %
09.06.2016 11:22 17,5 C 28,3 C 25,0 C 70 % 0 lf 1019,5 hPa 0,0 l/m 2 min 0 min 858 W/m 18,8 km/h (3 Bft) 100,00 %
09.06.2016 11:24 17,6 C 28,3 C 25,6 C 68 % 0 lf 1019,4 hPa 0,0 l/m 2 min 0 min 830 W/m 12,6 km/h (3 Bft) 100,00 %
09.06.2016 11:26 17,6 C 29,4 C 25,6 C 69 % 0 lf 1019,4 hPa 0,0 l/m 2 min 0 min 848 W/m 20,9 km/h (4 Bft) 95,74 %
09.06.2016 11:28 17,7 C 29,4 C 25,0 C 68 % 0 lf 1019,4 hPa 0,0 l/m 2 min 0 min 865 W/m 14,6 km/h (3 Bft) 100,00 %
09.06.2016 11:30 17,7 C 28,9 C 24,4 C 68 % 0 lf 1019,4 hPa 0,0 l/m 2 min 0 min 853 W/m 18,8 km/h (3 Bft) 100,00 %
09.06.2016 11:32 17,8 C 28,3 C 23,3 C 67 % 0 lf 1019,3 hPa 0,0 l/m 2 min 0 min 861 W/m 20,9 km/h (4 Bft) 95,74 %
09.06.2016 11:34 17,8 C 28,3 C 22,2 C 68 % 0 lf 1019,4 hPa 0,0 l/m 2 min 0 min 878 W/m 16,7 km/h (3 Bft) 93,62 %
09.06.2016 11:36 17,8 C 27,2 C 21,1 C 67 % 0 lf 1019,4 hPa 0,0 l/m 2 min 0 min 888 W/m 18,8 km/h (3 Bft) 100,00 %
09.06.2016 11:38 17,7 C 26,1 C 21,1 C 69 % 0 lf 1019,3 hPa 0,0 l/m 2 min 0 min 881 W/m 14,6 km/h (3 Bft) 100,00 %
09.06.2016 11:40 17,8 C 26,1 C 21,7 C 69 % 0 lf 1019,3 hPa 0,0 l/m 2 min 0 min 875 W/m 18,8 km/h (3 Bft) 100,00 %
09.06.2016 11:42 17,8 C 26,7 C 21,1 C 69 % 0 lf 1019,4 hPa 0,0 l/m 2 min 0 min 881 W/m 16,7 km/h (3 Bft) 97,83 %
09.06.2016 11:44 17,8 C 26,7 C 22,2 C 68 % 0 lf 1019,3 hPa 0,0 l/m 2 min 0 min 895 W/m 10,5 km/h (2 Bft) 100,00 %
09.06.2016 11:46 17,8 C 26,1 C 21,7 C 67 % 0 lf 1019,3 hPa 0,0 l/m 2 min 0 min 896 W/m 12,6 km/h (3 Bft) 100,00 %
09.06.2016 11:48 17,8 C 27,8 C 23,3 C 68 % 0 lf 1019,3 hPa 0,0 l/m 2 min 0 min 884 W/m 8,4 km/h (2 Bft) 95,74 %
09.06.2016 11:50 17,9 C 28,3 C 24,4 C 68 % 0 lf 1019,3 hPa 0,0 l/m 2 min 0 min 880 W/m 16,7 km/h (3 Bft) 97,87 %
09.06.2016 11:52 17,9 C 28,9 C 24,4 C 68 % 0 lf 1019,2 hPa 0,0 l/m 2 min 0 min 888 W/m 14,6 km/h (3 Bft) 91,49 %
09.06.2016 11:54 17,9 C 29,4 C 25,0 C 68 % 0 lf 1019,3 hPa 0,0 l/m 2 min 0 min 908 W/m 10,5 km/h (2 Bft) 95,65 %
09.06.2016 11:56 18,1 C 30,6 C 26,1 C 71 % 0 lf 1019,3 hPa 0,0 l/m 2 min 0 min 908 W/m 12,6 km/h (3 Bft) 93,62 %
09.06.2016 11:58 18,3 C 30,6 C 26,1 C 70 % 0 lf 1019,3 hPa 0,0 l/m 2 min 0 min 907 W/m 14,6 km/h (3 Bft) 93,62 %
09.06.2016 12:00 18,3 C 30,0 C 26,7 C 68 % 0 lf 1019,4 hPa 0,0 l/m 2 min 0 min 893 W/m 12,6 km/h (3 Bft) 91,49 %
09.06.2016 12:02 18,4 C 30,0 C 27,2 C 68 % 0 lf 1019,4 hPa 0,0 l/m 2 min 0 min 908 W/m 12,6 km/h (3 Bft) 95,74 %
09.06.2016 12:04 18,6 C 30,0 C 27,2 C 68 % 0 lf 1019,3 hPa 0,0 l/m 2 min 0 min 905 W/m 14,6 km/h (3 Bft) 95,74 %
09.06.2016 12:06 18,7 C 30,6 C 27,2 C 68 % 0 lf 1019,4 hPa 0,0 l/m 2 min 0 min 901 W/m 10,5 km/h (2 Bft) 91,84 %
09.06.2016 12:08 18,7 C 30,0 C 25,0 C 65 % 0 lf 1019,4 hPa 0,0 l/m 2 min 0 min 890 W/m 12,6 km/h (3 Bft) 91,49 %
09.06.2016 12:10 18,7 C 29,4 C 24,4 C 66 % 0 lf 1019,4 hPa 0,0 l/m 2 min 0 min 914 W/m 14,6 km/h (3 Bft) 93,62 %
09.06.2016 12:12 18,7 C 28,9 C 24,4 C 65 % 0 lf 1019,4 hPa 0,0 l/m 2 min 0 min 933 W/m 14,6 km/h (3 Bft) 93,62 %
09.06.2016 12:14 18,7 C 29,4 C 24,4 C 64 % 0 lf 1019,4 hPa 0,0 l/m 2 min 0 min 916 W/m 10,5 km/h (2 Bft) 91,49 %
09.06.2016 12:16 18,6 C 30,0 C 25,0 C 64 % 0 lf 1019,3 hPa 0,0 l/m 2 min 0 min 870 W/m 14,6 km/h (3 Bft) 93,48 %
09.06.2016 12:18 18,7 C 30,0 C 25,6 C 66 % 0 lf 1019,4 hPa 0,0 l/m 2 min 0 min 725 W/m 14,6 km/h (3 Bft) 93,62 %
09.06.2016 12:20 18,7 C 29,4 C 25,6 C 65 % 0 lf 1019,3 hPa 0,0 l/m 0 min 0 min 186 W/m 10,5 km/h (2 Bft) 95,74 %
09.06.2016 12:22 18,6 C 29,4 C 25,6 C 64 % 0 lf 1019,3 hPa 0,0 l/m 2 min 0 min 562 W/m 10,5 km/h (2 Bft) 93,62 %
09.06.2016 12:24 18,7 C 28,9 C 25,6 C 66 % 0 lf 1019,4 hPa 0,0 l/m 2 min 0 min 930 W/m 16,7 km/h (3 Bft) 93,62 %
09.06.2016 12:26 18,7 C 28,9 C 25,6 C 66 % 0 lf 1019,3 hPa 0,0 l/m 2 min 0 min 902 W/m 8,4 km/h (2 Bft) 93,62 %
09.06.2016 12:28 18,7 C 28,3 C 25,0 C 65 % 0 lf 1019,4 hPa 0,0 l/m 2 min 0 min 910 W/m 14,6 km/h (3 Bft) 91,30 %
09.06.2016 12:30 18,7 C 27,8 C 24,4 C 65 % 0 lf 1019,2 hPa 0,0 l/m 2 min 0 min 920 W/m 14,6 km/h (3 Bft) 89,36 %
09.06.2016 12:32 18,7 C 28,3 C 25,0 C 65 % 0 lf 1019,2 hPa 0,0 l/m 2 min 0 min 922 W/m 16,7 km/h (3 Bft) 93,62 %
09.06.2016 12:34 18,8 C 29,4 C 25,6 C 68 % 0 lf 1019,3 hPa 0,0 l/m 2 min 0 min 920 W/m 10,5 km/h (2 Bft) 91,49 %
09.06.2016 12:36 18,9 C 28,9 C 26,1 C 67 % 0 lf 1019,3 hPa 0,0 l/m 2 min 0 min 932 W/m 14,6 km/h (3 Bft) 95,56 %
09.06.2016 12:38 18,9 C 30,0 C 26,7 C 66 % 0 lf 1019,2 hPa 0,0 l/m 2 min 0 min 931 W/m 12,6 km/h (3 Bft) 95,74 %
09.06.2016 12:40 19,0 C 28,3 C 25,6 C 65 % 0 lf 1019,3 hPa 0,0 l/m 2 min 0 min 919 W/m 23,0 km/h (4 Bft) 91,30 %
09.06.2016 12:42 19,0 C 27,8 C 25,0 C 65 % 0 lf 1019,3 hPa 0,0 l/m 2 min 0 min 909 W/m 12,6 km/h (3 Bft) 91,49 %
09.06.2016 12:44 19,0 C 28,3 C 25,0 C 64 % 0 lf 1019,3 hPa 0,0 l/m 2 min 0 min 918 W/m 16,7 km/h (3 Bft) 93,62 %
09.06.2016 12:46 19,0 C 28,3 C 25,0 C 63 % 0 lf 1019,3 hPa 0,0 l/m 2 min 0 min 945 W/m 16,7 km/h (3 Bft) 93,62 %
09.06.2016 12:48 19,0 C 28,9 C 25,6 C 64 % 0 lf 1019,2 hPa 0,0 l/m 2 min 0 min 935 W/m 16,7 km/h (3 Bft) 93,62 %
09.06.2016 12:50 19,0 C 27,8 C 26,1 C 63 % 0 lf 1019,2 hPa 0,0 l/m 2 min 0 min 937 W/m 14,6 km/h (3 Bft) 95,74 %
09.06.2016 12:52 19,1 C 28,9 C 26,7 C 65 % 0 lf 1019,2 hPa 0,0 l/m 2 min 0 min 935 W/m 6,3 km/h (2 Bft) 95,65 %
09.06.2016 12:54 19,1 C 28,9 C 26,1 C 62 % 0 lf 1019,2 hPa 0,0 l/m 2 min 0 min 939 W/m 14,6 km/h (3 Bft) 89,36 %
09.06.2016 12:56 19,1 C 28,9 C 26,1 C 63 % 0 lf 1019,2 hPa 0,0 l/m 2 min 0 min 932 W/m 18,8 km/h (3 Bft) 95,74 %
09.06.2016 12:58 19,2 C 29,4 C 26,7 C 63 % 0 lf 1019,1 hPa 0,0 l/m 2 min 0 min 938 W/m 18,8 km/h (3 Bft) 95,74 %
09.06.2016 13:00 19,2 C 29,4 C 26,7 C 64 % 0 lf 1019,1 hPa 0,0 l/m 2 min 0 min 935 W/m 16,7 km/h (3 Bft) 100,00 %
09.06.2016 13:02 19,3 C 29,4 C 26,7 C 65 % 0 lf 1019,2 hPa 0,0 l/m 2 min 0 min 938 W/m 18,8 km/h (3 Bft) 97,87 %
09.06.2016 13:04 19,4 C 29,4 C 26,1 C 65 % 0 lf 1019,1 hPa 0,0 l/m 2 min 0 min 943 W/m 10,5 km/h (2 Bft) 97,83 %
09.06.2016 13:06 19,5 C 28,9 C 25,6 C 64 % 0 lf 1019,1 hPa 0,0 l/m 2 min 0 min 941 W/m 18,8 km/h (3 Bft) 95,74 %
09.06.2016 13:08 19,6 C 30,0 C 25,0 C 64 % 0 lf 1019,0 hPa 0,0 l/m 2 min 0 min 949 W/m 6,3 km/h (2 Bft) 97,87 %
09.06.2016 13:10 19,6 C 30,0 C 24,4 C 63 % 0 lf 1019,0 hPa 0,0 l/m 2 min 0 min 938 W/m 12,6 km/h (3 Bft) 93,62 %
09.06.2016 13:12 19,6 C 27,8 C 22,2 C 62 % 0 lf 1019,1 hPa 0,0 l/m 2 min 0 min 912 W/m 18,8 km/h (3 Bft) 91,49 %
09.06.2016 13:14 19,6 C 28,3 C 22,2 C 63 % 0 lf 1019,0 hPa 0,0 l/m 2 min 0 min 947 W/m 16,7 km/h (3 Bft) 97,87 %
09.06.2016 13:16 19,6 C 28,3 C 21,7 C 62 % 0 lf 1019,0 hPa 0,0 l/m 2 min 0 min 947 W/m 14,6 km/h (3 Bft) 95,65 %
09.06.2016 13:18 19,7 C 29,4 C 22,2 C 65 % 0 lf 1019,0 hPa 0,0 l/m 2 min 0 min 926 W/m 10,5 km/h (2 Bft) 97,87 %
09.06.2016 13:20 19,8 C 30,6 C 21,7 C 62 % 0 lf 1019,0 hPa 0,0 l/m 2 min 0 min 954 W/m 14,6 km/h (3 Bft) 97,87 %
09.06.2016 13:22 19,9 C 30,6 C 21,1 C 61 % 0 lf 1019,0 hPa 0,0 l/m 2 min 0 min 945 W/m 16,7 km/h (3 Bft) 97,87 %
09.06.2016 13:24 19,9 C 31,1 C 21,1 C 62 % 0 lf 1019,0 hPa 0,0 l/m 2 min 0 min 938 W/m 12,6 km/h (3 Bft) 93,62 %
09.06.2016 13:26 20,0 C 30,0 C 21,1 C 64 % 0 lf 1019,0 hPa 0,0 l/m 2 min 0 min 951 W/m 20,9 km/h (4 Bft) 97,87 %
09.06.2016 13:28 20,1 C 29,4 C 20,6 C 62 % 0 lf 1019,0 hPa 0,0 l/m 2 min 0 min 960 W/m 14,6 km/h (3 Bft) 95,65 %
09.06.2016 13:30 20,0 C 29,4 C 20,6 C 61 % 0 lf 1018,9 hPa 0,0 l/m 2 min 0 min 964 W/m 14,6 km/h (3 Bft) 100,00 %
09.06.2016 13:32 20,1 C 30,6 C 21,1 C 63 % 0 lf 1018,9 hPa 0,0 l/m 2 min 0 min 945 W/m 14,6 km/h (3 Bft) 95,74 %
09.06.2016 13:34 20,2 C 31,1 C 20,6 C 64 % 0 lf 1018,9 hPa 0,0 l/m 2 min 0 min 952 W/m 12,6 km/h (3 Bft) 97,87 %
09.06.2016 13:36 20,2 C 29,4 C 20,6 C 60 % 0 lf 1019,0 hPa 0,0 l/m 2 min 0 min 954 W/m 12,6 km/h (3 Bft) 100,00 %
09.06.2016 13:38 20,3 C 30,6 C 20,6 C 61 % 0 lf 1019,0 hPa 0,0 l/m 2 min 0 min 953 W/m 18,8 km/h (3 Bft) 100,00 %
09.06.2016 13:40 20,3 C 30,0 C 20,6 C 61 % 0 lf 1019,0 hPa 0,0 l/m 2 min 0 min 956 W/m 16,7 km/h (3 Bft) 100,00 %
09.06.2016 13:42 20,4 C 30,0 C 21,1 C 61 % 0 lf 1018,9 hPa 0,0 l/m 2 min 0 min 975 W/m 12,6 km/h (3 Bft) 100,00 %
09.06.2016 13:44 20,4 C 29,4 C 21,1 C 60 % 0 lf 1018,9 hPa 0,0 l/m 2 min 0 min 999 W/m 25,1 km/h (4 Bft) 100,00 %
09.06.2016 13:46 20,4 C 28,3 C 21,1 C 62 % 0 lf 1019,0 hPa 0,0 l/m 2 min 0 min 939 W/m 18,8 km/h (3 Bft) 100,00 %
09.06.2016 13:48 20,4 C 29,4 C 21,1 C 61 % 0 lf 1019,0 hPa 0,0 l/m 2 min 0 min 934 W/m 14,6 km/h (3 Bft) 97,87 %
09.06.2016 13:50 20,5 C 30,0 C 21,1 C 62 % 0 lf 1019,0 hPa 0,0 l/m 2 min 0 min 970 W/m 18,8 km/h (3 Bft) 100,00 %
09.06.2016 13:52 20,5 C 30,6 C 21,7 C 63 % 0 lf 1019,0 hPa 0,0 l/m 2 min 0 min 973 W/m 18,8 km/h (3 Bft) 100,00 %
09.06.2016 13:54 20,6 C 30,0 C 21,7 C 61 % 0 lf 1019,0 hPa 0,0 l/m 2 min 0 min 962 W/m 16,7 km/h (3 Bft) 95,74 %
09.06.2016 13:56 20,6 C 30,6 C 21,7 C 62 % 0 lf 1019,1 hPa 0,0 l/m 2 min 0 min 960 W/m 10,5 km/h (2 Bft) 100,00 %
09.06.2016 13:58 20,7 C 31,7 C 21,7 C 59 % 0 lf 1018,9 hPa 0,0 l/m 2 min 0 min 925 W/m 10,5 km/h (2 Bft) 100,00 %
09.06.2016 14:00 20,7 C 30,6 C 21,7 C 59 % 0 lf 1018,9 hPa 0,0 l/m 2 min 0 min 954 W/m 14,6 km/h (3 Bft) 100,00 %
09.06.2016 14:02 20,7 C 29,4 C 21,1 C 57 % 0 lf 1018,9 hPa 0,0 l/m 2 min 0 min 976 W/m 18,8 km/h (3 Bft) 100,00 %
09.06.2016 14:04 20,7 C 28,3 C 20,6 C 58 % 0 lf 1018,9 hPa 0,0 l/m 2 min 0 min 977 W/m 20,9 km/h (4 Bft) 97,87 %
09.06.2016 14:06 20,6 C 28,3 C 20,6 C 57 % 0 lf 1018,9 hPa 0,0 l/m 2 min 0 min 967 W/m 10,5 km/h (2 Bft) 95,74 %
09.06.2016 14:08 20,5 C 28,3 C 21,7 C 59 % 0 lf 1018,8 hPa 0,0 l/m 2 min 0 min 952 W/m 8,4 km/h (2 Bft) 97,87 %
09.06.2016 14:10 20,5 C 28,3 C 22,8 C 59 % 0 lf 1018,8 hPa 0,0 l/m 2 min 0 min 951 W/m 18,8 km/h (3 Bft) 100,00 %
09.06.2016 14:12 20,5 C 28,9 C 23,3 C 57 % 0 lf 1018,9 hPa 0,0 l/m 2 min 0 min 930 W/m 12,6 km/h (3 Bft) 97,87 %
09.06.2016 14:14 20,4 C 28,9 C 25,0 C 56 % 0 lf 1018,8 hPa 0,0 l/m 2 min 0 min 953 W/m 10,5 km/h (2 Bft) 95,65 %
09.06.2016 14:16 20,4 C 28,9 C 25,0 C 56 % 0 lf 1018,8 hPa 0,0 l/m 2 min 0 min 943 W/m 16,7 km/h (3 Bft) 100,00 %
09.06.2016 14:18 20,3 C 27,8 C 25,6 C 58 % 0 lf 1018,8 hPa 0,0 l/m 2 min 0 min 932 W/m 25,1 km/h (4 Bft) 100,00 %
09.06.2016 14:20 20,3 C 27,8 C 25,6 C 57 % 0 lf 1018,7 hPa 0,0 l/m 2 min 0 min 931 W/m 23,0 km/h (4 Bft) 100,00 %
09.06.2016 14:22 20,2 C 27,8 C 26,1 C 57 % 0 lf 1018,8 hPa 0,0 l/m 2 min 0 min 869 W/m 20,9 km/h (4 Bft) 97,87 %
09.06.2016 14:24 20,2 C 28,3 C 26,7 C 57 % 0 lf 1018,7 hPa 0,0 l/m 2 min 0 min 892 W/m 16,7 km/h (3 Bft) 95,74 %
09.06.2016 14:26 20,2 C 28,9 C 27,2 C 56 % 0 lf 1018,7 hPa 0,0 l/m 2 min 0 min 920 W/m 14,6 km/h (3 Bft) 100,00 %
09.06.2016 14:28 20,2 C 28,9 C 27,8 C 55 % 0 lf 1018,6 hPa 0,0 l/m 2 min 0 min 945 W/m 16,7 km/h (3 Bft) 97,87 %
09.06.2016 14:30 20,2 C 29,4 C 28,9 C 57 % 0 lf 1018,7 hPa 0,0 l/m 2 min 0 min 935 W/m 10,5 km/h (2 Bft) 97,87 %
09.06.2016 14:32 20,2 C 29,4 C 28,9 C 57 % 0 lf 1018,7 hPa 0,0 l/m 2 min 0 min 937 W/m 12,6 km/h (3 Bft) 97,87 %
09.06.2016 14:34 20,2 C 29,4 C 28,3 C 58 % 0 lf 1018,7 hPa 0,0 l/m 2 min 0 min 929 W/m 20,9 km/h (4 Bft) 91,49 %
09.06.2016 14:38 20,2 C 28,3 C 27,8 C 57 % 0 lf 1018,6 hPa 0,0 l/m 2 min 0 min 897 W/m 18,8 km/h (3 Bft) 96,77 %
09.06.2016 14:40 20,2 C 27,8 C 27,2 C 58 % 0 lf 1018,6 hPa 0,0 l/m 2 min 0 min 915 W/m 20,9 km/h (4 Bft) 95,74 %
09.06.2016 14:42 20,2 C 27,8 C 27,2 C 58 % 0 lf 1018,6 hPa 0,0 l/m 2 min 0 min 908 W/m 14,6 km/h (3 Bft) 91,49 %
09.06.2016 14:44 20,2 C 28,9 C 28,9 C 58 % 0 lf 1018,6 hPa 0,0 l/m 2 min 0 min 896 W/m 12,6 km/h (3 Bft) 95,74 %
09.06.2016 14:46 20,2 C 29,4 C 29,4 C 58 % 0 lf 1018,6 hPa 0,0 l/m 2 min 0 min 848 W/m 12,6 km/h (3 Bft) 93,62 %
09.06.2016 14:48 20,3 C 30,0 C 29,4 C 58 % 0 lf 1018,6 hPa 0,0 l/m 2 min 0 min 887 W/m 16,7 km/h (3 Bft) 93,62 %
09.06.2016 14:50 20,3 C 28,9 C 28,9 C 58 % 0 lf 1018,6 hPa 0,0 l/m 2 min 0 min 871 W/m 18,8 km/h (3 Bft) 93,48 %
09.06.2016 14:52 20,3 C 28,3 C 28,9 C 57 % 0 lf 1018,6 hPa 0,0 l/m 2 min 0 min 886 W/m 14,6 km/h (3 Bft) 93,62 %
09.06.2016 14:54 20,3 C 28,9 C 28,9 C 57 % 0 lf 1018,6 hPa 0,0 l/m 2 min 0 min 913 W/m 14,6 km/h (3 Bft) 95,74 %
09.06.2016 14:56 20,4 C 28,9 C 29,4 C 59 % 0 lf 1018,6 hPa 0,0 l/m 2 min 0 min 873 W/m 16,7 km/h (3 Bft) 93,62 %
09.06.2016 14:58 20,4 C 28,9 C 28,9 C 56 % 0 lf 1018,5 hPa 0,0 l/m 2 min 0 min 825 W/m 10,5 km/h (2 Bft) 93,62 %
09.06.2016 15:00 20,5 C 28,3 C 30,0 C 58 % 0 lf 1018,5 hPa 0,0 l/m 2 min 0 min 873 W/m 14,6 km/h (3 Bft) 95,65 %
09.06.2016 15:02 20,6 C 28,3 C 30,6 C 59 % 0 lf 1018,5 hPa 0,0 l/m 2 min 0 min 873 W/m 14,6 km/h (3 Bft) 93,62 %
09.06.2016 15:04 20,7 C 28,3 C 29,4 C 58 % 0 lf 1018,4 hPa 0,0 l/m 2 min 0 min 856 W/m 23,0 km/h (4 Bft) 93,62 %
09.06.2016 15:08 20,7 C 27,8 C 28,9 C 57 % 0 lf 1018,6 hPa 0,0 l/m 2 min 0 min 867 W/m 23,0 km/h (4 Bft) 94,68 %
09.06.2016 15:10 20,7 C 28,3 C 29,4 C 58 % 0 lf 1018,5 hPa 0,0 l/m 2 min 0 min 870 W/m 16,7 km/h (3 Bft) 92,45 %
09.06.2016 15:12 20,7 C 27,8 C 28,9 C 57 % 0 lf 1018,5 hPa 0,0 l/m 2 min 0 min 865 W/m 20,9 km/h (4 Bft) 91,49 %
09.06.2016 15:14 20,7 C 27,8 C 28,9 C 55 % 0 lf 1018,5 hPa 0,0 l/m 2 min 0 min 805 W/m 12,6 km/h (3 Bft) 91,49 %
09.06.2016 15:16 20,7 C 27,8 C 29,4 C 55 % 0 lf 1018,4 hPa 0,0 l/m 2 min 0 min 854 W/m 18,8 km/h (3 Bft) 91,49 %
09.06.2016 15:18 20,6 C 27,8 C 29,4 C 54 % 0 lf 1018,4 hPa 0,0 l/m 2 min 0 min 859 W/m 25,1 km/h (4 Bft) 93,62 %
09.06.2016 15:20 20,6 C 27,2 C 28,3 C 53 % 0 lf 1018,4 hPa 0,0 l/m 2 min 0 min 864 W/m 18,8 km/h (3 Bft) 91,89 %
09.06.2016 15:22 20,6 C 27,2 C 28,3 C 56 % 0 lf 1018,3 hPa 0,0 l/m 2 min 0 min 863 W/m 23,0 km/h (4 Bft) 95,74 %
09.06.2016 15:24 20,6 C 26,7 C 27,8 C 56 % 0 lf 1018,4 hPa 0,0 l/m 2 min 0 min 795 W/m 27,2 km/h (4 Bft) 95,65 %
09.06.2016 15:26 20,6 C 27,2 C 28,3 C 57 % 0 lf 1018,4 hPa 0,0 l/m 2 min 0 min 819 W/m 20,9 km/h (4 Bft) 93,62 %
09.06.2016 15:28 20,5 C 27,2 C 28,3 C 56 % 0 lf 1018,4 hPa 0,0 l/m 2 min 0 min 810 W/m 18,8 km/h (3 Bft) 93,62 %
09.06.2016 15:30 20,6 C 27,8 C 29,4 C 57 % 0 lf 1018,4 hPa 0,0 l/m 2 min 0 min 831 W/m 16,7 km/h (3 Bft) 89,36 %
09.06.2016 15:32 20,6 C 28,3 C 30,6 C 59 % 0 lf 1018,3 hPa 0,0 l/m 2 min 0 min 833 W/m 14,6 km/h (3 Bft) 95,74 %
09.06.2016 15:34 20,7 C 28,3 C 31,1 C 57 % 0 lf 1018,3 hPa 0,0 l/m 2 min 0 min 789 W/m 14,6 km/h (3 Bft) 91,49 %
09.06.2016 15:38 20,9 C 29,4 C 31,1 C 57 % 0 lf 1018,3 hPa 0,0 l/m 2 min 0 min 819 W/m 12,6 km/h (3 Bft) 94,79 %
09.06.2016 15:40 20,9 C 29,4 C 31,1 C 58 % 0 lf 1018,2 hPa 0,0 l/m 2 min 0 min 844 W/m 20,9 km/h (4 Bft) 93,62 %
09.06.2016 15:42 21,0 C 30,6 C 32,2 C 61 % 0 lf 1018,2 hPa 0,0 l/m 2 min 0 min 833 W/m 8,4 km/h (2 Bft) 91,49 %
09.06.2016 15:44 21,1 C 29,4 C 32,2 C 57 % 0 lf 1018,2 hPa 0,0 l/m 2 min 0 min 835 W/m 18,8 km/h (3 Bft) 95,74 %
09.06.2016 15:46 21,2 C 29,4 C 31,7 C 55 % 0 lf 1018,2 hPa 0,0 l/m 2 min 0 min 837 W/m 14,6 km/h (3 Bft) 93,62 %
09.06.2016 15:48 21,2 C 29,4 C 31,1 C 53 % 0 lf 1018,1 hPa 0,0 l/m 2 min 0 min 818 W/m 10,5 km/h (2 Bft) 93,48 %
09.06.2016 15:50 21,3 C 29,4 C 31,1 C 54 % 0 lf 1018,0 hPa 0,0 l/m 2 min 0 min 827 W/m 16,7 km/h (3 Bft) 95,74 %
09.06.2016 15:52 21,2 C 27,8 C 30,0 C 52 % 0 lf 1018,1 hPa 0,0 l/m 2 min 0 min 822 W/m 20,9 km/h (4 Bft) 95,74 %
09.06.2016 15:54 21,2 C 27,2 C 29,4 C 52 % 0 lf 1018,1 hPa 0,0 l/m 2 min 0 min 815 W/m 20,9 km/h (4 Bft) 97,87 %
09.06.2016 15:56 21,2 C 27,2 C 28,9 C 52 % 0 lf 1018,1 hPa 0,0 l/m 2 min 0 min 808 W/m 23,0 km/h (4 Bft) 95,74 %
09.06.2016 15:58 21,1 C 27,2 C 29,4 C 53 % 0 lf 1018,0 hPa 0,0 l/m 2 min 0 min 789 W/m 18,8 km/h (3 Bft) 93,62 %
09.06.2016 16:00 21,1 C 26,7 C 28,3 C 53 % 0 lf 1018,1 hPa 0,0 l/m 2 min 0 min 792 W/m 31,4 km/h (5 Bft) 95,65 %
09.06.2016 16:02 21,1 C 27,2 C 28,9 C 53 % 0 lf 1018,1 hPa 0,0 l/m 2 min 0 min 769 W/m 16,7 km/h (3 Bft) 95,74 %
09.06.2016 16:04 21,0 C 27,2 C 29,4 C 53 % 0 lf 1018,0 hPa 0,0 l/m 2 min 0 min 772 W/m 16,7 km/h (3 Bft) 95,74 %
09.06.2016 16:06 21,0 C 26,7 C 28,3 C 52 % 0 lf 1018,0 hPa 0,0 l/m 2 min 0 min 770 W/m 18,8 km/h (3 Bft) 95,74 %
09.06.2016 16:08 21,0 C 26,7 C 27,8 C 52 % 0 lf 1018,0 hPa 0,0 l/m 2 min 0 min 775 W/m 16,7 km/h (3 Bft) 97,87 %
09.06.2016 16:10 21,0 C 27,2 C 28,9 C 54 % 0 lf 1018,0 hPa 0,0 l/m 2 min 0 min 770 W/m 18,8 km/h (3 Bft) 95,74 %
09.06.2016 16:12 21,0 C 27,2 C 28,9 C 53 % 0 lf 1018,0 hPa 0,0 l/m 2 min 0 min 772 W/m 20,9 km/h (4 Bft) 95,65 %
09.06.2016 16:14 21,0 C 27,2 C 29,4 C 55 % 0 lf 1017,9 hPa 0,0 l/m 2 min 0 min 764 W/m 14,6 km/h (3 Bft) 97,87 %
09.06.2016 16:16 21,0 C 27,2 C 29,4 C 52 % 0 lf 1017,9 hPa 0,0 l/m 2 min 0 min 775 W/m 16,7 km/h (3 Bft) 97,87 %
09.06.2016 16:18 20,9 C 26,7 C 28,9 C 51 % 0 lf 1017,8 hPa 0,0 l/m 2 min 0 min 700 W/m 12,6 km/h (3 Bft) 95,74 %
09.06.2016 16:20 21,0 C 27,2 C 30,0 C 54 % 0 lf 1017,9 hPa 0,0 l/m 2 min 0 min 736 W/m 14,6 km/h (3 Bft) 97,87 %
09.06.2016 16:22 21,0 C 27,2 C 30,0 C 52 % 0 lf 1017,8 hPa 0,0 l/m 2 min 0 min 733 W/m 16,7 km/h (3 Bft) 97,83 %
09.06.2016 16:24 21,0 C 26,7 C 29,4 C 51 % 0 lf 1017,8 hPa 0,0 l/m 2 min 0 min 730 W/m 18,8 km/h (3 Bft) 100,00 %
09.06.2016 16:26 21,0 C 26,1 C 28,3 C 51 % 0 lf 1017,9 hPa 0,0 l/m 2 min 0 min 683 W/m 25,1 km/h (4 Bft) 100,00 %
09.06.2016 16:28 21,0 C 26,1 C 27,8 C 51 % 0 lf 1017,8 hPa 0,0 l/m 2 min 0 min 704 W/m 20,9 km/h (4 Bft) 97,87 %
09.06.2016 16:30 21,0 C 26,1 C 27,8 C 50 % 0 lf 1017,8 hPa 0,0 l/m 2 min 0 min 709 W/m 23,0 km/h (4 Bft) 100,00 %
09.06.2016 16:32 21,0 C 27,2 C 28,9 C 52 % 0 lf 1017,8 hPa 0,0 l/m 2 min 0 min 707 W/m 12,6 km/h (3 Bft) 97,87 %
09.06.2016 16:34 21,0 C 27,2 C 28,9 C 52 % 0 lf 1017,7 hPa 0,0 l/m 2 min 0 min 704 W/m 12,6 km/h (3 Bft) 100,00 %
09.06.2016 16:36 21,0 C 27,8 C 29,4 C 51 % 0 lf 1017,7 hPa 0,0 l/m 2 min 0 min 708 W/m 10,5 km/h (2 Bft) 97,87 %
09.06.2016 16:38 21,1 C 27,2 C 29,4 C 52 % 0 lf 1017,7 hPa 0,0 l/m 2 min 0 min 698 W/m 14,6 km/h (3 Bft) 97,87 %
09.06.2016 16:40 21,0 C 27,2 C 28,9 C 52 % 0 lf 1017,6 hPa 0,0 l/m 2 min 0 min 701 W/m 18,8 km/h (3 Bft) 97,87 %
09.06.2016 16:42 21,1 C 26,1 C 28,3 C 52 % 0 lf 1017,7 hPa 0,0 l/m 2 min 0 min 694 W/m 20,9 km/h (4 Bft) 93,62 %
09.06.2016 16:44 21,0 C 25,6 C 26,7 C 52 % 0 lf 1017,7 hPa 0,0 l/m 2 min 0 min 675 W/m 16,7 km/h (3 Bft) 100,00 %
09.06.2016 16:46 20,9 C 25,6 C 26,7 C 52 % 0 lf 1017,6 hPa 0,0 l/m 2 min 0 min 690 W/m 14,6 km/h (3 Bft) 95,65 %
09.06.2016 16:48 20,9 C 25,6 C 27,2 C 52 % 0 lf 1017,7 hPa 0,0 l/m 2 min 0 min 587 W/m 16,7 km/h (3 Bft) 97,87 %
09.06.2016 16:50 20,9 C 26,1 C 27,8 C 52 % 0 lf 1017,6 hPa 0,0 l/m 2 min 0 min 635 W/m 16,7 km/h (3 Bft) 97,87 %
09.06.2016 16:52 20,9 C 26,7 C 28,9 C 52 % 0 lf 1017,6 hPa 0,0 l/m 2 min 0 min 667 W/m 18,8 km/h (3 Bft) 95,74 %
09.06.2016 16:54 20,9 C 26,7 C 28,9 C 53 % 0 lf 1017,6 hPa 0,0 l/m 2 min 0 min 656 W/m 16,7 km/h (3 Bft) 95,74 %
09.06.2016 16:56 20,9 C 26,7 C 28,9 C 51 % 0 lf 1017,7 hPa 0,0 l/m 2 min 0 min 647 W/m 12,6 km/h (3 Bft) 91,49 %
09.06.2016 16:58 20,9 C 26,7 C 30,0 C 51 % 0 lf 1017,5 hPa 0,0 l/m 2 min 0 min 650 W/m 12,6 km/h (3 Bft) 95,65 %
09.06.2016 17:00 21,0 C 27,2 C 30,0 C 51 % 0 lf 1017,6 hPa 0,0 l/m 2 min 0 min 650 W/m 12,6 km/h (3 Bft) 98,11 %
09.06.2016 17:02 21,0 C 27,2 C 30,0 C 50 % 0 lf 1017,5 hPa 0,0 l/m 2 min 0 min 650 W/m 12,6 km/h (3 Bft) 97,87 %
09.06.2016 17:04 21,0 C 27,2 C 30,0 C 52 % 0 lf 1017,5 hPa 0,0 l/m 2 min 0 min 641 W/m 12,6 km/h (3 Bft) 97,87 %
09.06.2016 17:06 21,1 C 26,7 C 28,3 C 52 % 0 lf 1017,6 hPa 0,0 l/m 2 min 0 min 640 W/m 14,6 km/h (3 Bft) 97,30 %
09.06.2016 17:08 21,1 C 26,1 C 25,6 C 50 % 0 lf 1017,6 hPa 0,0 l/m 2 min 0 min 617 W/m 23,0 km/h (4 Bft) 96,55 %
09.06.2016 17:10 21,1 C 26,1 C 25,6 C 51 % 0 lf 1017,6 hPa 0,0 l/m 2 min 0 min 618 W/m 10,5 km/h (2 Bft) 97,14 %
09.06.2016 17:12 21,2 C 26,1 C 25,0 C 51 % 0 lf 1017,6 hPa 0,0 l/m 2 min 0 min 610 W/m 10,5 km/h (2 Bft) 97,87 %
09.06.2016 17:14 21,2 C 26,7 C 23,9 C 52 % 0 lf 1017,6 hPa 0,0 l/m 2 min 0 min 603 W/m 8,4 km/h (2 Bft) 95,74 %
09.06.2016 17:16 21,2 C 27,2 C 24,4 C 52 % 0 lf 1017,5 hPa 0,0 l/m 2 min 0 min 607 W/m 10,5 km/h (2 Bft) 97,87 %
09.06.2016 17:18 21,2 C 26,7 C 25,0 C 52 % 0 lf 1017,4 hPa 0,0 l/m 2 min 0 min 603 W/m 12,6 km/h (3 Bft) 97,87 %
09.06.2016 17:20 21,2 C 26,1 C 26,1 C 51 % 0 lf 1017,5 hPa 0,0 l/m 2 min 0 min 613 W/m 14,6 km/h (3 Bft) 93,10 %
09.06.2016 17:22 21,2 C 26,1 C 27,2 C 51 % 0 lf 1017,4 hPa 0,0 l/m 2 min 0 min 610 W/m 6,3 km/h (2 Bft) 97,14 %
09.06.2016 17:24 21,2 C 26,1 C 27,8 C 50 % 0 lf 1017,3 hPa 0,0 l/m 2 min 0 min 594 W/m 10,5 km/h (2 Bft) 98,31 %
09.06.2016 17:26 21,2 C 25,6 C 27,2 C 51 % 0 lf 1017,4 hPa 0,0 l/m 2 min 0 min 550 W/m 18,8 km/h (3 Bft) 97,14 %
09.06.2016 17:28 21,2 C 25,6 C 27,2 C 52 % 0 lf 1017,4 hPa 0,0 l/m 2 min 0 min 563 W/m 16,7 km/h (3 Bft) 97,87 %
09.06.2016 17:30 21,2 C 24,4 C 25,0 C 51 % 0 lf 1017,4 hPa 0,0 l/m 2 min 0 min 561 W/m 20,9 km/h (4 Bft) 93,62 %
09.06.2016 17:32 21,1 C 23,9 C 22,8 C 52 % 0 lf 1017,4 hPa 0,0 l/m 2 min 0 min 582 W/m 23,0 km/h (4 Bft) 94,83 %
09.06.2016 17:34 21,1 C 23,9 C 22,2 C 52 % 0 lf 1017,4 hPa 0,0 l/m 2 min 0 min 561 W/m 25,1 km/h (4 Bft) 97,14 %
09.06.2016 17:36 21,1 C 23,9 C 21,7 C 53 % 0 lf 1017,3 hPa 0,0 l/m 2 min 0 min 541 W/m 12,6 km/h (3 Bft) 93,62 %
09.06.2016 17:38 21,1 C 23,9 C 21,1 C 53 % 0 lf 1017,2 hPa 0,0 l/m 2 min 0 min 571 W/m 12,6 km/h (3 Bft) 94,92 %
09.06.2016 17:40 21,1 C 23,3 C 20,6 C 53 % 0 lf 1017,2 hPa 0,0 l/m 2 min 0 min 570 W/m 14,6 km/h (3 Bft) 93,62 %
09.06.2016 17:42 21,1 C 23,3 C 20,6 C 53 % 0 lf 1017,1 hPa 0,0 l/m 2 min 0 min 564 W/m 14,6 km/h (3 Bft) 97,14 %
09.06.2016 17:44 21,1 C 23,3 C 20,0 C 54 % 0 lf 1017,1 hPa 0,0 l/m 2 min 0 min 557 W/m 14,6 km/h (3 Bft) 93,62 %
09.06.2016 17:46 21,1 C 22,8 C 20,0 C 52 % 0 lf 1017,1 hPa 0,0 l/m 2 min 0 min 533 W/m 16,7 km/h (3 Bft) 91,38 %
09.06.2016 17:48 21,1 C 22,2 C 20,0 C 51 % 0 lf 1017,1 hPa 0,0 l/m 2 min 0 min 514 W/m 10,5 km/h (2 Bft) 97,14 %
09.06.2016 17:50 21,0 C 22,2 C 20,0 C 52 % 0 lf 1017,2 hPa 0,0 l/m 2 min 0 min 536 W/m 12,6 km/h (3 Bft) 94,92 %
09.06.2016 17:52 21,0 C 22,2 C 19,4 C 51 % 0 lf 1017,0 hPa 0,0 l/m 2 min 0 min 515 W/m 14,6 km/h (3 Bft) 93,62 %
09.06.2016 17:54 21,0 C 22,2 C 19,4 C 52 % 0 lf 1017,1 hPa 0,0 l/m 2 min 0 min 490 W/m 14,6 km/h (3 Bft) 94,29 %
09.06.2016 17:56 21,0 C 22,2 C 19,4 C 53 % 0 lf 1017,1 hPa 0,0 l/m 2 min 0 min 499 W/m 14,6 km/h (3 Bft) 95,74 %
09.06.2016 17:58 21,0 C 22,2 C 19,4 C 53 % 0 lf 1017,1 hPa 0,0 l/m 2 min 0 min 473 W/m 10,5 km/h (2 Bft) 96,55 %
09.06.2016 18:00 21,0 C 22,2 C 19,4 C 53 % 0 lf 1017,1 hPa 0,0 l/m 2 min 0 min 507 W/m 4,2 km/h (1 Bft) 91,43 %
09.06.2016 18:02 21,0 C 22,8 C 19,4 C 53 % 0 lf 1016,9 hPa 0,0 l/m 2 min 0 min 474 W/m 12,6 km/h (3 Bft) 95,74 %
09.06.2016 18:04 21,0 C 22,2 C 19,4 C 53 % 0 lf 1017,0 hPa 0,0 l/m 2 min 0 min 482 W/m 8,4 km/h (2 Bft) 89,36 %
09.06.2016 18:06 21,0 C 22,2 C 19,4 C 52 % 0 lf 1017,0 hPa 0,0 l/m 2 min 0 min 424 W/m 10,5 km/h (2 Bft) 93,62 %
09.06.2016 18:08 21,0 C 22,2 C 19,4 C 52 % 0 lf 1017,0 hPa 0,0 l/m 2 min 0 min 507 W/m 10,5 km/h (2 Bft) 95,74 %
09.06.2016 18:10 21,0 C 22,2 C 19,4 C 52 % 0 lf 1016,9 hPa 0,0 l/m 2 min 0 min 482 W/m 16,7 km/h (3 Bft) 97,83 %
09.06.2016 18:12 21,0 C 22,2 C 19,4 C 54 % 0 lf 1016,9 hPa 0,0 l/m 2 min 0 min 470 W/m 10,5 km/h (2 Bft) 95,74 %
09.06.2016 18:14 21,0 C 22,2 C 18,9 C 53 % 0 lf 1017,0 hPa 0,0 l/m 2 min 0 min 469 W/m 16,7 km/h (3 Bft) 97,87 %
09.06.2016 18:16 20,9 C 22,2 C 19,4 C 53 % 0 lf 1016,9 hPa 0,0 l/m 2 min 0 min 478 W/m 14,6 km/h (3 Bft) 97,87 %
09.06.2016 18:18 20,9 C 21,7 C 18,9 C 52 % 0 lf 1016,9 hPa 0,0 l/m 2 min 0 min 457 W/m 14,6 km/h (3 Bft) 93,10 %
09.06.2016 18:20 20,9 C 21,7 C 18,9 C 52 % 0 lf 1016,9 hPa 0,0 l/m 2 min 0 min 450 W/m 16,7 km/h (3 Bft) 93,62 %
09.06.2016 18:22 20,9 C 21,7 C 18,9 C 52 % 0 lf 1017,0 hPa 0,0 l/m 2 min 0 min 428 W/m 14,6 km/h (3 Bft) 100,00 %
09.06.2016 18:24 20,9 C 21,7 C 18,9 C 52 % 0 lf 1017,1 hPa 0,0 l/m 2 min 0 min 410 W/m 12,6 km/h (3 Bft) 97,87 %
09.06.2016 18:26 20,8 C 21,7 C 18,9 C 53 % 0 lf 1017,0 hPa 0,0 l/m 2 min 0 min 427 W/m 6,3 km/h (2 Bft) 93,62 %
09.06.2016 18:28 20,8 C 21,1 C 18,9 C 54 % 0 lf 1016,9 hPa 0,0 l/m 2 min 0 min 433 W/m 8,4 km/h (2 Bft) 96,61 %
09.06.2016 18:30 20,8 C 21,7 C 18,9 C 54 % 0 lf 1016,9 hPa 0,0 l/m 2 min 0 min 408 W/m 12,6 km/h (3 Bft) 100,00 %
09.06.2016 18:32 20,8 C 21,7 C 18,9 C 54 % 0 lf 1016,9 hPa 0,0 l/m 2 min 0 min 410 W/m 8,4 km/h (2 Bft) 97,83 %
09.06.2016 18:34 20,8 C 21,7 C 18,9 C 54 % 0 lf 1017,0 hPa 0,0 l/m 2 min 0 min 415 W/m 14,6 km/h (3 Bft) 98,31 %
09.06.2016 18:36 20,8 C 21,7 C 18,9 C 54 % 0 lf 1017,0 hPa 0,0 l/m 2 min 0 min 404 W/m 10,5 km/h (2 Bft) 100,00 %
09.06.2016 18:38 20,8 C 21,7 C 18,9 C 54 % 0 lf 1017,0 hPa 0,0 l/m 2 min 0 min 404 W/m 6,3 km/h (2 Bft) 93,62 %
09.06.2016 18:40 20,8 C 21,1 C 18,9 C 52 % 0 lf 1017,0 hPa 0,0 l/m 2 min 0 min 389 W/m 4,2 km/h (1 Bft) 97,87 %
09.06.2016 18:42 20,7 C 21,1 C 18,9 C 53 % 0 lf 1016,9 hPa 0,0 l/m 2 min 0 min 388 W/m 12,6 km/h (3 Bft) 97,87 %
09.06.2016 18:44 20,7 C 21,1 C 18,9 C 53 % 0 lf 1016,9 hPa 0,0 l/m 2 min 0 min 379 W/m 18,8 km/h (3 Bft) 97,83 %
09.06.2016 18:46 20,7 C 21,1 C 18,9 C 52 % 0 lf 1016,9 hPa 0,0 l/m 2 min 0 min 374 W/m 10,5 km/h (2 Bft) 97,87 %
09.06.2016 18:48 20,7 C 21,1 C 18,3 C 53 % 0 lf 1016,9 hPa 0,0 l/m 2 min 0 min 374 W/m 12,6 km/h (3 Bft) 95,74 %
09.06.2016 18:50 20,6 C 21,1 C 18,9 C 53 % 0 lf 1016,9 hPa 0,0 l/m 2 min 0 min 369 W/m 12,6 km/h (3 Bft) 94,92 %
09.06.2016 18:52 20,6 C 21,1 C 18,3 C 53 % 0 lf 1016,8 hPa 0,0 l/m 2 min 0 min 366 W/m 6,3 km/h (2 Bft) 97,14 %
09.06.2016 18:54 20,6 C 21,1 C 18,3 C 53 % 0 lf 1016,9 hPa 0,0 l/m 2 min 0 min 360 W/m 8,4 km/h (2 Bft) 97,87 %
09.06.2016 18:56 20,6 C 21,1 C 18,3 C 53 % 0 lf 1016,9 hPa 0,0 l/m 2 min 0 min 351 W/m 6,3 km/h (2 Bft) 95,65 %
09.06.2016 18:58 20,6 C 21,1 C 18,3 C 54 % 0 lf 1016,9 hPa 0,0 l/m 2 min 0 min 335 W/m 10,5 km/h (2 Bft) 95,74 %
09.06.2016 19:00 20,6 C 21,1 C 18,9 C 54 % 0 lf 1017,0 hPa 0,0 l/m 2 min 0 min 326 W/m 14,6 km/h (3 Bft) 89,36 %
09.06.2016 19:02 20,6 C 21,1 C 18,3 C 54 % 0 lf 1017,0 hPa 0,0 l/m 2 min 0 min 326 W/m 14,6 km/h (3 Bft) 96,30 %
09.06.2016 19:04 20,6 C 21,1 C 18,3 C 54 % 0 lf 1017,0 hPa 0,0 l/m 2 min 0 min 323 W/m 8,4 km/h (2 Bft) 95,74 %
09.06.2016 19:06 20,5 C 21,1 C 18,3 C 54 % 0 lf 1016,9 hPa 0,0 l/m 2 min 0 min 324 W/m 10,5 km/h (2 Bft) 91,30 %
09.06.2016 19:08 20,5 C 21,1 C 18,3 C 54 % 0 lf 1017,0 hPa 0,0 l/m 2 min 0 min 318 W/m 8,4 km/h (2 Bft) 95,74 %
09.06.2016 19:10 20,5 C 21,1 C 18,3 C 54 % 0 lf 1016,9 hPa 0,0 l/m 2 min 0 min 314 W/m 10,5 km/h (2 Bft) 93,62 %
09.06.2016 19:12 20,5 C 21,1 C 18,3 C 54 % 0 lf 1016,9 hPa 0,0 l/m 2 min 0 min 309 W/m 10,5 km/h (2 Bft) 93,62 %
09.06.2016 19:14 20,5 C 21,1 C 18,3 C 55 % 0 lf 1016,9 hPa 0,0 l/m 2 min 0 min 302 W/m 8,4 km/h (2 Bft) 95,74 %
09.06.2016 19:16 20,5 C 21,1 C 18,3 C 55 % 0 lf 1016,8 hPa 0,0 l/m 2 min 0 min 295 W/m 14,6 km/h (3 Bft) 95,74 %
09.06.2016 19:18 20,5 C 21,1 C 18,3 C 55 % 0 lf 1016,8 hPa 0,0 l/m 2 min 0 min 293 W/m 14,6 km/h (3 Bft) 93,48 %
09.06.2016 19:20 20,4 C 20,6 C 18,3 C 54 % 0 lf 1016,8 hPa 0,0 l/m 2 min 0 min 287 W/m 12,6 km/h (3 Bft) 95,74 %
09.06.2016 19:22 20,4 C 20,6 C 18,3 C 54 % 0 lf 1016,8 hPa 0,0 l/m 2 min 0 min 282 W/m 10,5 km/h (2 Bft) 95,74 %
09.06.2016 19:24 20,4 C 20,6 C 18,3 C 54 % 0 lf 1016,8 hPa 0,0 l/m 2 min 0 min 275 W/m 8,4 km/h (2 Bft) 93,62 %
09.06.2016 19:26 20,4 C 20,6 C 18,3 C 55 % 0 lf 1016,8 hPa 0,0 l/m 2 min 0 min 265 W/m 10,5 km/h (2 Bft) 95,74 %
09.06.2016 19:28 20,4 C 20,6 C 18,3 C 54 % 0 lf 1016,8 hPa 0,0 l/m 2 min 0 min 258 W/m 10,5 km/h (2 Bft) 93,62 %
09.06.2016 19:30 20,4 C 20,6 C 18,3 C 54 % 0 lf 1016,8 hPa 0,0 l/m 2 min 0 min 256 W/m 8,4 km/h (2 Bft) 95,65 %
09.06.2016 19:32 20,4 C 20,6 C 18,3 C 55 % 0 lf 1016,8 hPa 0,0 l/m 2 min 0 min 244 W/m 10,5 km/h (2 Bft) 95,74 %
09.06.2016 19:34 20,4 C 20,6 C 18,3 C 56 % 0 lf 1016,7 hPa 0,0 l/m 2 min 0 min 235 W/m 6,3 km/h (2 Bft) 91,49 %
09.06.2016 19:36 20,4 C 20,6 C 18,3 C 55 % 0 lf 1016,7 hPa 0,0 l/m 2 min 0 min 238 W/m 4,2 km/h (1 Bft) 97,56 %
09.06.2016 19:38 20,4 C 20,6 C 18,3 C 55 % 0 lf 1016,7 hPa 0,0 l/m 2 min 0 min 220 W/m 6,3 km/h (2 Bft) 100,00 %
09.06.2016 19:40 20,4 C 20,6 C 18,3 C 56 % 0 lf 1016,7 hPa 0,0 l/m 2 min 0 min 203 W/m 12,6 km/h (3 Bft) 97,87 %
09.06.2016 19:42 20,4 C 20,6 C 18,3 C 55 % 0 lf 1016,7 hPa 0,0 l/m 2 min 0 min 211 W/m 14,6 km/h (3 Bft) 100,00 %
09.06.2016 19:44 20,3 C 20,6 C 18,3 C 54 % 0 lf 1016,7 hPa 0,0 l/m 2 min 0 min 210 W/m 10,5 km/h (2 Bft) 100,00 %
09.06.2016 19:46 20,3 C 20,6 C 18,3 C 54 % 0 lf 1016,7 hPa 0,0 l/m 2 min 0 min 211 W/m 10,5 km/h (2 Bft) 100,00 %
09.06.2016 19:48 20,3 C 20,6 C 18,3 C 55 % 0 lf 1016,6 hPa 0,0 l/m 2 min 0 min 208 W/m 8,4 km/h (2 Bft) 100,00 %
09.06.2016 19:50 20,3 C 20,6 C 18,3 C 54 % 0 lf 1016,6 hPa 0,0 l/m 2 min 0 min 205 W/m 8,4 km/h (2 Bft) 95,74 %
09.06.2016 19:52 20,3 C 20,6 C 18,3 C 54 % 0 lf 1016,5 hPa 0,0 l/m 2 min 0 min 197 W/m 8,4 km/h (2 Bft) 97,87 %
09.06.2016 19:54 20,3 C 20,0 C 18,3 C 54 % 0 lf 1016,5 hPa 0,0 l/m 2 min 0 min 191 W/m 6,3 km/h (2 Bft) 100,00 %
09.06.2016 19:56 20,3 C 20,0 C 17,8 C 55 % 0 lf 1016,4 hPa 0,0 l/m 2 min 0 min 185 W/m 4,2 km/h (1 Bft) 100,00 %
09.06.2016 19:58 20,3 C 20,0 C 17,8 C 54 % 0 lf 1016,4 hPa 0,0 l/m 2 min 0 min 180 W/m 8,4 km/h (2 Bft) 100,00 %
09.06.2016 20:00 20,3 C 20,0 C 17,8 C 55 % 0 lf 1016,4 hPa 0,0 l/m 2 min 0 min 176 W/m 8,4 km/h (2 Bft) 100,00 %
09.06.2016 20:02 20,3 C 20,0 C 17,8 C 55 % 0 lf 1016,4 hPa 0,0 l/m 2 min 0 min 170 W/m 8,4 km/h (2 Bft) 100,00 %
09.06.2016 20:04 20,2 C 20,0 C 17,8 C 55 % 0 lf 1016,3 hPa 0,0 l/m 2 min 0 min 165 W/m 8,4 km/h (2 Bft) 97,87 %
09.06.2016 20:06 20,2 C 20,0 C 17,8 C 55 % 0 lf 1016,4 hPa 0,0 l/m 2 min 0 min 159 W/m 6,3 km/h (2 Bft) 96,55 %
09.06.2016 20:08 20,2 C 20,0 C 17,8 C 55 % 0 lf 1016,4 hPa 0,0 l/m 2 min 0 min 155 W/m 6,3 km/h (2 Bft) 95,74 %
09.06.2016 20:10 20,2 C 20,0 C 17,8 C 55 % 0 lf 1016,4 hPa 0,0 l/m 2 min 0 min 149 W/m 8,4 km/h (2 Bft) 95,74 %
09.06.2016 20:12 20,2 C 20,0 C 17,8 C 56 % 0 lf 1016,4 hPa 0,0 l/m 2 min 0 min 144 W/m 6,3 km/h (2 Bft) 97,87 %
09.06.2016 20:14 20,2 C 20,0 C 17,8 C 56 % 0 lf 1016,4 hPa 0,0 l/m 2 min 0 min 139 W/m 4,2 km/h (1 Bft) 97,87 %
09.06.2016 20:16 20,2 C 20,0 C 17,2 C 56 % 0 lf 1016,3 hPa 0,0 l/m 2 min 0 min 134 W/m 6,3 km/h (2 Bft) 97,83 %
09.06.2016 20:18 20,2 C 20,0 C 17,8 C 56 % 0 lf 1016,2 hPa 0,0 l/m 2 min 0 min 128 W/m 6,3 km/h (2 Bft) 97,87 %
09.06.2016 20:20 20,2 C 19,4 C 17,2 C 57 % 0 lf 1016,2 hPa 0,0 l/m 2 min 0 min 123 W/m 6,3 km/h (2 Bft) 95,74 %
09.06.2016 20:22 20,1 C 19,4 C 17,2 C 56 % 0 lf 1016,1 hPa 0,0 l/m 2 min 0 min 115 W/m 4,2 km/h (1 Bft) 95,74 %
09.06.2016 20:24 20,1 C 19,4 C 17,2 C 57 % 0 lf 1016,1 hPa 0,0 l/m 2 min 0 min 111 W/m 4,2 km/h (1 Bft) 97,87 %
09.06.2016 20:26 20,1 C 19,4 C 17,2 C 57 % 0 lf 1016,1 hPa 0,0 l/m 2 min 0 min 107 W/m 2,1 km/h (1 Bft) 95,74 %
09.06.2016 20:28 20,1 C 19,4 C 17,2 C 57 % 0 lf 1016,1 hPa 0,0 l/m 2 min 0 min 103 W/m 4,2 km/h (1 Bft) 97,83 %
09.06.2016 20:30 20,1 C 19,4 C 17,2 C 57 % 0 lf 1016,1 hPa 0,0 l/m 2 min 0 min 99 W/m 4,2 km/h (1 Bft) 97,87 %
09.06.2016 20:32 20,0 C 19,4 C 16,7 C 57 % 0 lf 1016,1 hPa 0,0 l/m 2 min 0 min 94 W/m 2,1 km/h (1 Bft) 95,74 %
09.06.2016 20:34 20,0 C 19,4 C 16,7 C 57 % 0 lf 1016,1 hPa 0,0 l/m 2 min 0 min 89 W/m 6,3 km/h (2 Bft) 97,87 %
09.06.2016 20:36 19,9 C 19,4 C 16,7 C 57 % 0 lf 1016,2 hPa 0,0 l/m 2 min 0 min 84 W/m 6,3 km/h (2 Bft) 97,37 %
09.06.2016 20:38 19,9 C 19,4 C 16,7 C 58 % 0 lf 1016,1 hPa 0,0 l/m 2 min 0 min 81 W/m 10,5 km/h (2 Bft) 95,74 %
09.06.2016 20:40 19,9 C 19,4 C 16,7 C 56 % 0 lf 1016,1 hPa 0,0 l/m 2 min 0 min 76 W/m 12,6 km/h (3 Bft) 97,87 %
09.06.2016 20:42 19,8 C 19,4 C 17,2 C 55 % 0 lf 1016,1 hPa 0,0 l/m 2 min 0 min 72 W/m 12,6 km/h (3 Bft) 97,83 %
09.06.2016 20:44 19,8 C 19,4 C 17,2 C 55 % 0 lf 1016,1 hPa 0,0 l/m 2 min 0 min 69 W/m 12,6 km/h (3 Bft) 95,74 %
09.06.2016 20:46 19,8 C 19,4 C 17,2 C 56 % 0 lf 1016,2 hPa 0,0 l/m 2 min 0 min 66 W/m 10,5 km/h (2 Bft) 97,87 %
09.06.2016 20:48 19,8 C 19,4 C 17,2 C 56 % 0 lf 1016,1 hPa 0,0 l/m 2 min 0 min 62 W/m 12,6 km/h (3 Bft) 95,74 %
09.06.2016 20:50 19,7 C 18,9 C 16,7 C 56 % 0 lf 1016,2 hPa 0,0 l/m 2 min 0 min 58 W/m 18,8 km/h (3 Bft) 95,74 %
09.06.2016 20:52 19,7 C 18,9 C 16,7 C 56 % 0 lf 1016,1 hPa 0,0 l/m 2 min 0 min 54 W/m 16,7 km/h (3 Bft) 97,87 %
09.06.2016 20:54 19,7 C 18,9 C 16,7 C 56 % 0 lf 1016,1 hPa 0,0 l/m 2 min 0 min 52 W/m 12,6 km/h (3 Bft) 93,48 %
09.06.2016 20:56 19,6 C 18,9 C 16,7 C 55 % 0 lf 1016,1 hPa 0,0 l/m 0 min 0 min 48 W/m 10,5 km/h (2 Bft) 97,87 %
09.06.2016 20:58 19,6 C 18,9 C 16,7 C 56 % 0 lf 1016,1 hPa 0,0 l/m 0 min 0 min 45 W/m 8,4 km/h (2 Bft) 93,62 %
09.06.2016 21:00 19,6 C 18,9 C 16,7 C 56 % 0 lf 1016,1 hPa 0,0 l/m 0 min 0 min 42 W/m 6,3 km/h (2 Bft) 95,74 %
09.06.2016 21:02 19,5 C 18,3 C 16,1 C 56 % 0 lf 1016,1 hPa 0,0 l/m 0 min 0 min 40 W/m 12,6 km/h (3 Bft) 91,49 %
09.06.2016 21:04 19,5 C 18,3 C 16,1 C 56 % 0 lf 1016,1 hPa 0,0 l/m 0 min 0 min 38 W/m 8,4 km/h (2 Bft) 93,62 %
09.06.2016 21:06 19,4 C 18,3 C 16,1 C 56 % 0 lf 1016,1 hPa 0,0 l/m 0 min 0 min 34 W/m 8,4 km/h (2 Bft) 95,65 %
09.06.2016 21:08 19,4 C 18,3 C 16,1 C 55 % 0 lf 1016,1 hPa 0,0 l/m 0 min 0 min 33 W/m 10,5 km/h (2 Bft) 97,87 %
09.06.2016 21:10 19,4 C 18,3 C 16,1 C 56 % 0 lf 1016,1 hPa 0,0 l/m 0 min 0 min 31 W/m 8,4 km/h (2 Bft) 95,74 %
09.06.2016 21:12 19,3 C 18,3 C 16,1 C 56 % 0 lf 1016,1 hPa 0,0 l/m 0 min 0 min 29 W/m 10,5 km/h (2 Bft) 91,49 %
09.06.2016 21:14 19,3 C 18,3 C 16,1 C 56 % 0 lf 1016,1 hPa 0,0 l/m 0 min 0 min 28 W/m 10,5 km/h (2 Bft) 95,74 %
09.06.2016 21:16 19,2 C 17,8 C 16,1 C 56 % 0 lf 1016,1 hPa 0,0 l/m 0 min 0 min 26 W/m 6,3 km/h (2 Bft) 95,65 %
09.06.2016 21:18 19,2 C 17,8 C 16,1 C 56 % 0 lf 1016,0 hPa 0,0 l/m 2 min 0 min 26 W/m 8,4 km/h (2 Bft) 91,49 %
09.06.2016 21:20 19,1 C 17,8 C 15,6 C 57 % 0 lf 1016,1 hPa 0,0 l/m 2 min 0 min 25 W/m 6,3 km/h (2 Bft) 95,74 %
09.06.2016 21:22 19,1 C 17,8 C 15,6 C 57 % 0 lf 1016,0 hPa 0,0 l/m 2 min 0 min 23 W/m 6,3 km/h (2 Bft) 93,62 %
09.06.2016 21:24 19,1 C 17,8 C 15,6 C 57 % 0 lf 1016,1 hPa 0,0 l/m 2 min 0 min 22 W/m 10,5 km/h (2 Bft) 93,62 %
09.06.2016 21:26 19,0 C 17,2 C 15,6 C 57 % 0 lf 1016,1 hPa 0,0 l/m 2 min 0 min 21 W/m 8,4 km/h (2 Bft) 95,74 %
09.06.2016 21:28 18,9 C 17,2 C 15,6 C 57 % 0 lf 1016,1 hPa 0,0 l/m 2 min 0 min 20 W/m 8,4 km/h (2 Bft) 93,48 %
09.06.2016 21:30 18,9 C 17,2 C 15,0 C 57 % 0 lf 1016,1 hPa 0,0 l/m 2 min 0 min 19 W/m 12,6 km/h (3 Bft) 95,74 %
09.06.2016 21:32 18,8 C 17,2 C 15,0 C 57 % 0 lf 1016,1 hPa 0,0 l/m 0 min 0 min 18 W/m 8,4 km/h (2 Bft) 97,87 %
09.06.2016 21:34 18,8 C 17,2 C 15,0 C 58 % 0 lf 1016,1 hPa 0,0 l/m 0 min 0 min 17 W/m 8,4 km/h (2 Bft) 91,49 %
09.06.2016 21:36 18,7 C 17,2 C 15,0 C 58 % 0 lf 1016,2 hPa 0,0 l/m 0 min 0 min 16 W/m 12,6 km/h (3 Bft) 96,49 %
09.06.2016 21:38 18,7 C 17,2 C 15,0 C 58 % 0 lf 1016,2 hPa 0,0 l/m 0 min 0 min 14 W/m 10,5 km/h (2 Bft) 97,83 %
09.06.2016 21:40 18,6 C 17,2 C 15,6 C 58 % 0 lf 1016,2 hPa 0,0 l/m 0 min 0 min 14 W/m 10,5 km/h (2 Bft) 97,87 %
09.06.2016 21:42 18,6 C 17,2 C 15,6 C 57 % 0 lf 1016,2 hPa 0,0 l/m 0 min 0 min 12 W/m 12,6 km/h (3 Bft) 93,62 %
09.06.2016 21:44 18,5 C 17,2 C 15,6 C 57 % 0 lf 1016,3 hPa 0,0 l/m 0 min 0 min 12 W/m 12,6 km/h (3 Bft) 93,62 %
09.06.2016 21:46 18,4 C 17,2 C 15,6 C 57 % 0 lf 1016,2 hPa 0,0 l/m 0 min 0 min 11 W/m 12,6 km/h (3 Bft) 95,74 %
09.06.2016 21:48 18,3 C 17,2 C 15,6 C 58 % 0 lf 1016,2 hPa 0,0 l/m 0 min 0 min 10 W/m 12,6 km/h (3 Bft) 95,74 %
09.06.2016 21:50 18,3 C 16,7 C 15,0 C 58 % 0 lf 1016,2 hPa 0,0 l/m 0 min 0 min 9 W/m 12,6 km/h (3 Bft) 95,65 %
09.06.2016 21:52 18,3 C 16,7 C 15,0 C 58 % 0 lf 1016,3 hPa 0,0 l/m 0 min 0 min 9 W/m 6,3 km/h (2 Bft) 97,87 %
09.06.2016 21:54 18,2 C 16,7 C 15,0 C 58 % 0 lf 1016,3 hPa 0,0 l/m 0 min 0 min 7 W/m 10,5 km/h (2 Bft) 97,87 %
09.06.2016 21:56 18,2 C 16,7 C 15,0 C 59 % 0 lf 1016,3 hPa 0,0 l/m 0 min 0 min 7 W/m 10,5 km/h (2 Bft) 97,87 %
09.06.2016 21:58 18,1 C 16,7 C 15,0 C 59 % 0 lf 1016,2 hPa 0,0 l/m 0 min 0 min 7 W/m 8,4 km/h (2 Bft) 95,74 %
09.06.2016 22:00 18,1 C 16,7 C 14,4 C 59 % 0 lf 1016,2 hPa 0,0 l/m 0 min 0 min 7 W/m 10,5 km/h (2 Bft) 95,74 %
09.06.2016 22:02 18,0 C 16,1 C 14,4 C 59 % 0 lf 1016,2 hPa 0,0 l/m 0 min 0 min 6 W/m 8,4 km/h (2 Bft) 95,65 %
09.06.2016 22:04 17,9 C 16,1 C 14,4 C 59 % 0 lf 1016,3 hPa 0,0 l/m 0 min 0 min 5 W/m 10,5 km/h (2 Bft) 95,74 %
09.06.2016 22:06 17,9 C 16,1 C 14,4 C 59 % 0 lf 1016,2 hPa 0,0 l/m 0 min 0 min 5 W/m 10,5 km/h (2 Bft) 97,96 %
09.06.2016 22:08 17,8 C 16,1 C 14,4 C 59 % 0 lf 1016,3 hPa 0,0 l/m 0 min 0 min 5 W/m 8,4 km/h (2 Bft) 95,74 %
09.06.2016 22:10 17,8 C 16,1 C 13,9 C 60 % 0 lf 1016,3 hPa 0,0 l/m 0 min 0 min 5 W/m 6,3 km/h (2 Bft) 97,87 %
09.06.2016 22:12 17,7 C 15,6 C 13,9 C 60 % 0 lf 1016,3 hPa 0,0 l/m 0 min 0 min 3 W/m 6,3 km/h (2 Bft) 97,83 %
09.06.2016 22:14 17,7 C 15,6 C 13,9 C 60 % 0 lf 1016,3 hPa 0,0 l/m 0 min 0 min 0 W/m 6,3 km/h (2 Bft) 97,87 %
09.06.2016 22:16 17,7 C 15,6 C 13,9 C 60 % 0 lf 1016,3 hPa 0,0 l/m 0 min 0 min 0 W/m 10,5 km/h (2 Bft) 95,74 %
09.06.2016 22:18 17,6 C 15,6 C 13,9 C 60 % 0 lf 1016,3 hPa 0,0 l/m 0 min 0 min 0 W/m 8,4 km/h (2 Bft) 93,62 %
09.06.2016 22:20 17,5 C 15,6 C 13,9 C 60 % 0 lf 1016,4 hPa 0,0 l/m 0 min 0 min 0 W/m 6,3 km/h (2 Bft) 97,87 %
09.06.2016 22:22 17,4 C 15,6 C 13,9 C 60 % 0 lf 1016,3 hPa 0,0 l/m 0 min 0 min 0 W/m 6,3 km/h (2 Bft) 97,87 %
09.06.2016 22:24 17,4 C 15,6 C 13,9 C 60 % 0 lf 1016,3 hPa 0,0 l/m 0 min 0 min 2 W/m 6,3 km/h (2 Bft) 97,83 %
09.06.2016 22:26 17,3 C 15,6 C 13,9 C 60 % 0 lf 1016,3 hPa 0,0 l/m 0 min 0 min 0 W/m 6,3 km/h (2 Bft) 95,74 %
09.06.2016 22:28 17,3 C 15,0 C 13,3 C 61 % 0 lf 1016,3 hPa 0,0 l/m 0 min 0 min 0 W/m 4,2 km/h (1 Bft) 95,74 %
09.06.2016 22:30 17,2 C 15,0 C 13,3 C 61 % 0 lf 1016,3 hPa 0,0 l/m 0 min 0 min 0 W/m 4,2 km/h (1 Bft) 97,87 %
09.06.2016 22:32 17,2 C 15,0 C 13,3 C 62 % 0 lf 1016,3 hPa 0,0 l/m 0 min 0 min 0 W/m 4,2 km/h (1 Bft) 97,87 %
09.06.2016 22:34 17,2 C 15,0 C 12,8 C 61 % 0 lf 1016,3 hPa 0,0 l/m 0 min 0 min 2 W/m 4,2 km/h (1 Bft) 95,74 %
09.06.2016 22:36 17,1 C 14,4 C 12,8 C 61 % 0 lf 1016,3 hPa 0,0 l/m 0 min 0 min 0 W/m 4,2 km/h (1 Bft) 97,14 %
09.06.2016 22:38 17,0 C 14,4 C 12,8 C 61 % 0 lf 1016,3 hPa 0,0 l/m 0 min 0 min 0 W/m 6,3 km/h (2 Bft) 95,65 %
09.06.2016 22:40 16,9 C 14,4 C 12,8 C 61 % 0 lf 1016,3 hPa 0,0 l/m 0 min 0 min 0 W/m 4,2 km/h (1 Bft) 97,87 %
09.06.2016 22:42 16,9 C 14,4 C 12,8 C 62 % 0 lf 1016,3 hPa 0,0 l/m 0 min 0 min 0 W/m 6,3 km/h (2 Bft) 97,87 %
09.06.2016 22:44 16,8 C 14,4 C 12,2 C 62 % 0 lf 1016,3 hPa 0,0 l/m 0 min 0 min 0 W/m 4,2 km/h (1 Bft) 95,74 %
09.06.2016 22:46 16,7 C 13,9 C 12,2 C 62 % 0 lf 1016,3 hPa 0,0 l/m 0 min 0 min 0 W/m 4,2 km/h (1 Bft) 97,87 %
09.06.2016 22:48 16,6 C 13,9 C 12,2 C 62 % 0 lf 1016,3 hPa 0,0 l/m 0 min 0 min 0 W/m 4,2 km/h (1 Bft) 100,00 %
09.06.2016 22:50 16,6 C 13,9 C 12,2 C 62 % 0 lf 1016,3 hPa 0,0 l/m 0 min 0 min 0 W/m 4,2 km/h (1 Bft) 97,83 %
09.06.2016 22:52 16,5 C 13,9 C 12,2 C 63 % 0 lf 1016,3 hPa 0,0 l/m 0 min 0 min 0 W/m 4,2 km/h (1 Bft) 97,87 %
09.06.2016 22:54 16,4 C 13,9 C 12,2 C 63 % 0 lf 1016,4 hPa 0,0 l/m 0 min 0 min 0 W/m 4,2 km/h (1 Bft) 95,74 %
09.06.2016 22:56 16,4 C 13,9 C 12,2 C 63 % 0 lf 1016,3 hPa 0,0 l/m 0 min 0 min 0 W/m 4,2 km/h (1 Bft) 95,74 %
09.06.2016 22:58 16,3 C 13,9 C 12,2 C 64 % 0 lf 1016,4 hPa 0,0 l/m 0 min 0 min 0 W/m 4,2 km/h (1 Bft) 95,74 %
09.06.2016 23:00 16,2 C 13,9 C 12,2 C 64 % 0 lf 1016,4 hPa 0,0 l/m 0 min 0 min 0 W/m 4,2 km/h (1 Bft) 95,74 %
09.06.2016 23:02 16,2 C 13,9 C 12,2 C 65 % 0 lf 1016,3 hPa 0,0 l/m 0 min 0 min 0 W/m 4,2 km/h (1 Bft) 93,48 %
09.06.2016 23:04 16,1 C 13,3 C 11,7 C 65 % 0 lf 1016,3 hPa 0,0 l/m 0 min 0 min 0 W/m 4,2 km/h (1 Bft) 95,74 %
09.06.2016 23:06 16,1 C 13,3 C 11,7 C 64 % 0 lf 1016,3 hPa 0,0 l/m 0 min 0 min 0 W/m 4,2 km/h (1 Bft) 93,62 %
09.06.2016 23:08 16,0 C 13,3 C 11,7 C 65 % 0 lf 1016,3 hPa 0,0 l/m 0 min 0 min 0 W/m 2,1 km/h (1 Bft) 93,62 %
09.06.2016 23:10 15,9 C 13,3 C 11,7 C 65 % 0 lf 1016,4 hPa 0,0 l/m 0 min 0 min 0 W/m 2,1 km/h (1 Bft) 95,74 %
09.06.2016 23:12 15,9 C 13,3 C 11,7 C 65 % 0 lf 1016,4 hPa 0,0 l/m 0 min 0 min 0 W/m 2,1 km/h (1 Bft) 95,74 %
09.06.2016 23:14 15,8 C 13,3 C 11,7 C 66 % 0 lf 1016,4 hPa 0,0 l/m 0 min 0 min 0 W/m 2,1 km/h (1 Bft) 97,83 %
09.06.2016 23:16 15,7 C 12,8 C 11,7 C 66 % 0 lf 1016,4 hPa 0,0 l/m 0 min 0 min 0 W/m 2,1 km/h (1 Bft) 93,62 %
09.06.2016 23:18 15,7 C 12,8 C 11,7 C 66 % 0 lf 1016,4 hPa 0,0 l/m 0 min 0 min 0 W/m 4,2 km/h (1 Bft) 95,74 %
09.06.2016 23:20 15,6 C 12,8 C 11,7 C 66 % 0 lf 1016,3 hPa 0,0 l/m 0 min 0 min 0 W/m 4,2 km/h (1 Bft) 91,49 %
09.06.2016 23:22 15,6 C 12,8 C 11,7 C 66 % 0 lf 1016,3 hPa 0,0 l/m 0 min 0 min 0 W/m 4,2 km/h (1 Bft) 95,74 %
09.06.2016 23:24 15,5 C 13,3 C 11,7 C 66 % 0 lf 1016,3 hPa 0,0 l/m 0 min 0 min 0 W/m 4,2 km/h (1 Bft) 95,74 %
09.06.2016 23:26 15,4 C 12,8 C 11,7 C 66 % 0 lf 1016,3 hPa 0,0 l/m 0 min 0 min 0 W/m 4,2 km/h (1 Bft) 93,48 %
09.06.2016 23:28 15,4 C 12,8 C 11,7 C 67 % 0 lf 1016,4 hPa 0,0 l/m 0 min 0 min 0 W/m 6,3 km/h (2 Bft) 95,74 %
09.06.2016 23:30 15,3 C 12,8 C 11,7 C 67 % 0 lf 1016,4 hPa 0,0 l/m 0 min 0 min 0 W/m 4,2 km/h (1 Bft) 97,87 %
09.06.2016 23:32 15,3 C 12,8 C 11,7 C 67 % 0 lf 1016,4 hPa 0,0 l/m 0 min 0 min 0 W/m 4,2 km/h (1 Bft) 97,87 %
09.06.2016 23:34 15,2 C 12,8 C 11,7 C 67 % 0 lf 1016,4 hPa 0,0 l/m 0 min 0 min 0 W/m 6,3 km/h (2 Bft) 95,74 %
09.06.2016 23:36 15,2 C 12,8 C 11,7 C 67 % 0 lf 1016,4 hPa 0,0 l/m 0 min 0 min 0 W/m 6,3 km/h (2 Bft) 96,23 %
09.06.2016 23:38 15,2 C 12,8 C 11,1 C 67 % 0 lf 1016,4 hPa 0,0 l/m 0 min 0 min 0 W/m 6,3 km/h (2 Bft) 97,87 %
09.06.2016 23:40 15,1 C 12,8 C 11,1 C 67 % 0 lf 1016,4 hPa 0,0 l/m 0 min 0 min 0 W/m 4,2 km/h (1 Bft) 97,87 %
09.06.2016 23:42 15,1 C 12,8 C 11,1 C 68 % 0 lf 1016,4 hPa 0,0 l/m 0 min 0 min 0 W/m 6,3 km/h (2 Bft) 97,87 %
09.06.2016 23:44 15,0 C 12,8 C 11,1 C 68 % 0 lf 1016,4 hPa 0,0 l/m 0 min 0 min 0 W/m 6,3 km/h (2 Bft) 95,74 %
09.06.2016 23:46 14,9 C 12,8 C 11,1 C 68 % 0 lf 1016,4 hPa 0,0 l/m 0 min 0 min 0 W/m 4,2 km/h (1 Bft) 97,83 %
09.06.2016 23:48 14,9 C 12,8 C 11,1 C 68 % 0 lf 1016,4 hPa 0,0 l/m 0 min 0 min 0 W/m 6,3 km/h (2 Bft) 100,00 %
09.06.2016 23:50 14,8 C 12,8 C 11,1 C 68 % 0 lf 1016,5 hPa 0,0 l/m 0 min 0 min 0 W/m 4,2 km/h (1 Bft) 100,00 %
09.06.2016 23:52 14,8 C 12,8 C 11,1 C 68 % 0 lf 1016,6 hPa 0,0 l/m 0 min 0 min 0 W/m 6,3 km/h (2 Bft) 95,74 %
09.06.2016 23:54 14,7 C 12,8 C 11,1 C 68 % 0 lf 1016,6 hPa 0,0 l/m 0 min 0 min 0 W/m 6,3 km/h (2 Bft) 95,74 %
09.06.2016 23:56 14,7 C 12,8 C 11,1 C 69 % 0 lf 1016,5 hPa 0,0 l/m 0 min 0 min 0 W/m 4,2 km/h (1 Bft) 100,00 %
09.06.2016 23:58 14,7 C 12,8 C 11,1 C 69 % 0 lf 1016,7 hPa 0,0 l/m 0 min 0 min 0 W/m 6,3 km/h (2 Bft) 100,00 %
_ Min-Zeit 07:18 00:50 04:46 16:30 00:00 21:18 - - - - 00:30 00:02
Minimum _ 11,9 C 12,2 C 11,1 C 50 % 0 lf 1016,0 hPa - - - - 0,0 km/h (0 Bft) 14,29 %
_ Max-Zeit 15:50 13:58 15:42 03:22 00:00 06:18 00:00 06:28 00:00 13:44 16:00 00:08
Maximum _ 21,3 C 31,7 C 32,2 C 93 % 0 lf 1020,3 hPa 0,0 l/m 2 min 0 min 999 W/m 31,4 km/h
NO (5 Bft)
100,00 %
Durchschnitt _ 16,6 C 19,5 C 17,5 C 72 % 0 lf 1018,7 hPa #0,0 l/m #13:22 h #0 min. 474 W/m 11,4 km/h (2 Bft) 96,01 %
© 2016 W. Hausmann